Time,TemperatureF,DewpointF,PressureIn,WindDirection,WindDirectionDegrees,WindSpeedMPH,WindSpeedGustMPH,Humidity,HourlyPrecipIn,Conditions,Clouds,dailyrainin,SolarRadiationWatts/m^2,SoftwareType,DateUTC
2013-08-24 00:00:00,68.6,63.6,28.48,ESE,109,0.0,1.0,84,0.00,,,0.00,0,Wunderground v.1.15,2013-08-24 05:00:00,
2013-08-24 00:03:00,68.6,63.9,28.48,ESE,109,0.0,0.0,85,0.00,,,0.00,0,Wunderground v.1.15,2013-08-24 05:03:00,
2013-08-24 00:05:00,68.5,63.5,28.48,ESE,109,0.0,0.0,84,0.00,,,0.00,0,Wunderground v.1.15,2013-08-24 05:05:00,
2013-08-24 00:06:00,68.5,63.8,28.48,ESE,108,0.0,0.0,85,0.00,,,0.00,0,Wunderground v.1.15,2013-08-24 05:06:00,
2013-08-24 00:09:00,68.5,63.5,28.48,ESE,106,0.0,0.0,84,0.00,,,0.00,0,Wunderground v.1.15,2013-08-24 05:09:00,
2013-08-24 00:10:00,68.4,63.4,28.48,ESE,106,0.0,0.0,84,0.00,,,0.00,0,Wunderground v.1.15,2013-08-24 05:10:00,
2013-08-24 00:11:00,68.4,63.7,28.48,ESE,106,0.0,0.0,85,0.00,,,0.00,0,Wunderground v.1.15,2013-08-24 05:11:00,
2013-08-24 00:14:00,68.4,63.7,28.48,ESE,106,0.0,0.0,85,0.00,,,0.00,0,Wunderground v.1.15,2013-08-24 05:14:00,
2013-08-24 00:15:00,68.3,63.6,28.48,N/A,-737280,0.0,-999.0,85,0.00,,,0.03,,Wunderground v.1.15,2013-08-24 05:15:00,
2013-08-24 00:16:00,68.3,63.3,28.48,ESE,106,0.0,0.0,84,0.00,,,0.00,0,Wunderground v.1.15,2013-08-24 05:16:00,
2013-08-24 00:18:00,68.3,63.3,28.48,ESE,106,0.0,0.0,84,0.00,,,0.00,0,Wunderground v.1.15,2013-08-24 05:18:00,
2013-08-24 00:20:00,68.3,63.6,28.48,ESE,106,0.0,0.0,85,0.00,,,0.00,0,Wunderground v.1.15,2013-08-24 05:20:00,
2013-08-24 00:21:00,68.3,63.6,28.48,ESE,106,0.0,0.0,85,0.00,,,0.00,0,Wunderground v.1.15,2013-08-24 05:21:00,
2013-08-24 00:23:00,68.2,63.5,28.47,East,84,0.0,0.0,85,0.00,,,0.00,0,Wunderground v.1.15,2013-08-24 05:23:00,
2013-08-24 00:24:00,68.2,63.2,28.48,East,84,0.0,0.0,84,0.00,,,0.00,0,Wunderground v.1.15,2013-08-24 05:24:00,
2013-08-24 00:25:00,68.2,63.5,28.47,N/A,-737280,0.0,-999.0,85,0.00,,,0.03,,Wunderground v.1.15,2013-08-24 05:25:00,
2013-08-24 00:26:00,68.2,63.2,28.47,East,84,0.0,0.0,84,0.00,,,0.00,0,Wunderground v.1.15,2013-08-24 05:26:00,
2013-08-24 00:28:00,68.1,63.1,28.47,East,84,0.0,0.0,84,0.00,,,0.00,0,Wunderground v.1.15,2013-08-24 05:28:00,
2013-08-24 00:30:00,68.1,63.4,28.47,N/A,-737280,0.0,-999.0,85,0.00,,,0.03,,Wunderground v.1.15,2013-08-24 05:30:00,
2013-08-24 00:32:00,68.0,63.0,28.47,East,93,0.0,0.0,84,0.00,,,0.00,0,Wunderground v.1.15,2013-08-24 05:32:00,
2013-08-24 00:35:00,68.0,63.3,28.47,N/A,-737280,0.0,-999.0,85,0.00,,,0.03,,Wunderground v.1.15,2013-08-24 05:35:00,
2013-08-24 00:36:00,67.9,63.2,28.47,East,93,0.0,0.0,85,0.00,,,0.00,0,Wunderground v.1.15,2013-08-24 05:36:00,
2013-08-24 00:37:00,67.9,63.2,28.47,East,101,0.0,0.0,85,0.00,,,0.00,0,Wunderground v.1.15,2013-08-24 05:37:00,
2013-08-24 00:38:00,67.9,63.2,28.48,East,100,0.0,0.0,85,0.00,,,0.00,0,Wunderground v.1.15,2013-08-24 05:38:00,
2013-08-24 00:40:00,67.9,63.2,28.47,East,100,0.0,0.0,85,0.00,,,0.00,0,Wunderground v.1.15,2013-08-24 05:40:00,
2013-08-24 00:42:00,67.8,63.1,28.47,East,98,0.0,0.0,85,0.00,,,0.00,0,Wunderground v.1.15,2013-08-24 05:42:00,
2013-08-24 00:45:00,67.7,63.4,28.47,N/A,-737280,0.0,-999.0,86,0.00,,,0.03,,Wunderground v.1.15,2013-08-24 05:45:00,
2013-08-24 00:46:00,67.7,63.0,28.48,East,88,0.0,0.0,85,0.00,,,0.00,0,Wunderground v.1.15,2013-08-24 05:46:00,
2013-08-24 00:47:00,67.7,63.4,28.47,East,88,0.0,0.0,86,0.00,,,0.00,0,Wunderground v.1.15,2013-08-24 05:47:00,
2013-08-24 00:48:00,67.7,63.4,28.47,East,88,0.0,0.0,86,0.00,,,0.00,0,Wunderground v.1.15,2013-08-24 05:48:00,
2013-08-24 00:50:00,67.6,63.3,28.47,N/A,-737280,0.0,-999.0,86,0.00,,,0.03,,Wunderground v.1.15,2013-08-24 05:50:00,
2013-08-24 00:51:00,67.6,63.3,28.47,East,88,0.0,0.0,86,0.00,,,0.00,0,Wunderground v.1.15,2013-08-24 05:51:00,
2013-08-24 00:52:00,67.6,63.3,28.47,East,88,0.0,0.0,86,0.00,,,0.00,0,Wunderground v.1.15,2013-08-24 05:52:00,
2013-08-24 00:53:00,67.6,63.3,28.47,East,88,0.0,0.0,86,0.00,,,0.00,0,Wunderground v.1.15,2013-08-24 05:53:00,
2013-08-24 00:55:00,67.6,63.3,28.47,East,88,0.0,0.0,86,0.00,,,0.00,0,Wunderground v.1.15,2013-08-24 05:55:00,
2013-08-24 00:57:00,67.5,63.2,28.47,East,88,0.0,0.0,86,0.00,,,0.00,0,Wunderground v.1.15,2013-08-24 05:57:00,
2013-08-24 00:58:00,67.5,63.2,28.47,East,88,0.0,0.0,86,0.00,,,0.00,0,Wunderground v.1.15,2013-08-24 05:58:00,
2013-08-24 00:59:00,67.5,63.2,28.47,East,88,0.0,0.0,86,0.00,,,0.00,0,Wunderground v.1.15,2013-08-24 05:59:00,
2013-08-24 01:00:00,67.5,63.2,28.47,N/A,-737280,0.0,-999.0,86,0.00,,,0.03,,Wunderground v.1.15,2013-08-24 06:00:00,
2013-08-24 01:03:00,67.4,63.1,28.47,East,88,0.0,0.0,86,0.00,,,0.00,0,Wunderground v.1.15,2013-08-24 06:03:00,
2013-08-24 01:04:00,67.4,63.1,28.47,East,88,0.0,0.0,86,0.00,,,0.00,0,Wunderground v.1.15,2013-08-24 06:04:00,
2013-08-24 01:05:00,67.4,63.1,28.47,East,88,0.0,0.0,86,0.00,,,0.00,0,Wunderground v.1.15,2013-08-24 06:05:00,
2013-08-24 01:07:00,67.4,63.1,28.47,East,88,0.0,0.0,86,0.00,,,0.00,0,Wunderground v.1.15,2013-08-24 06:07:00,
2013-08-24 01:08:00,67.4,63.1,28.47,East,88,0.0,0.0,86,0.00,,,0.00,0,Wunderground v.1.15,2013-08-24 06:08:00,
2013-08-24 01:10:00,67.4,63.1,28.47,East,88,0.0,0.0,86,0.00,,,0.00,0,Wunderground v.1.15,2013-08-24 06:10:00,
2013-08-24 01:12:00,67.3,63.3,28.47,East,86,0.0,0.0,87,0.00,,,0.00,0,Wunderground v.1.15,2013-08-24 06:12:00,
2013-08-24 01:13:00,67.3,63.0,28.47,East,86,0.0,0.0,86,0.00,,,0.00,0,Wunderground v.1.15,2013-08-24 06:13:00,
2013-08-24 01:15:00,67.3,63.3,28.46,N/A,-737280,0.0,-999.0,87,0.00,,,0.03,,Wunderground v.1.15,2013-08-24 06:15:00,
2013-08-24 01:16:00,67.3,63.3,28.47,East,85,0.0,0.0,87,0.00,,,0.00,0,Wunderground v.1.15,2013-08-24 06:16:00,
2013-08-24 01:18:00,67.3,63.3,28.47,East,85,0.0,0.0,87,0.00,,,0.00,0,Wunderground v.1.15,2013-08-24 06:18:00,
2013-08-24 01:19:00,67.3,63.3,28.46,East,85,0.0,0.0,87,0.00,,,0.00,0,Wunderground v.1.15,2013-08-24 06:19:00,
2013-08-24 01:20:00,67.3,63.3,28.46,N/A,-737280,0.0,-999.0,87,0.00,,,0.03,,Wunderground v.1.15,2013-08-24 06:20:00,
2013-08-24 01:22:00,67.3,63.0,28.47,East,85,0.0,0.0,86,0.00,,,0.00,0,Wunderground v.1.15,2013-08-24 06:22:00,
2013-08-24 01:24:00,67.3,63.3,28.46,East,85,0.0,0.0,87,0.00,,,0.00,0,Wunderground v.1.15,2013-08-24 06:24:00,
2013-08-24 01:25:00,67.3,63.3,28.46,N/A,-737280,0.0,-999.0,87,0.00,,,0.03,,Wunderground v.1.15,2013-08-24 06:25:00,
2013-08-24 01:27:00,67.3,63.3,28.46,East,85,0.0,0.0,87,0.00,,,0.00,0,Wunderground v.1.15,2013-08-24 06:27:00,
2013-08-24 01:29:00,67.3,63.3,28.46,ENE,64,0.0,0.0,87,0.00,,,0.00,0,Wunderground v.1.15,2013-08-24 06:29:00,
2013-08-24 01:30:00,67.3,63.3,28.46,SE,143,0.0,0.0,87,0.00,,,0.00,0,Wunderground v.1.15,2013-08-24 06:30:00,
2013-08-24 01:31:00,67.3,63.3,28.46,SSE,156,0.0,0.0,87,0.00,,,0.00,0,Wunderground v.1.15,2013-08-24 06:31:00,
2013-08-24 01:33:00,67.4,63.4,28.46,South,177,0.0,0.0,87,0.00,,,0.00,0,Wunderground v.1.15,2013-08-24 06:33:00,
2013-08-24 01:34:00,67.4,63.1,28.46,SSE,150,0.0,0.0,86,0.00,,,0.00,0,Wunderground v.1.15,2013-08-24 06:34:00,
2013-08-24 01:35:00,67.4,63.4,28.46,N/A,-737280,0.0,-999.0,87,0.00,,,0.03,,Wunderground v.1.15,2013-08-24 06:35:00,
2013-08-24 01:38:00,67.5,63.5,28.46,SSE,149,0.0,0.0,87,0.00,,,0.00,0,Wunderground v.1.15,2013-08-24 06:38:00,
2013-08-24 01:39:00,67.5,63.5,28.46,SSE,156,0.0,0.0,87,0.00,,,0.00,0,Wunderground v.1.15,2013-08-24 06:39:00,
2013-08-24 01:40:00,67.6,63.3,28.45,N/A,-737280,0.0,-999.0,86,0.00,,,0.03,,Wunderground v.1.15,2013-08-24 06:40:00,
2013-08-24 01:42:00,67.6,63.3,28.45,SE,126,0.0,0.0,86,0.00,,,0.00,0,Wunderground v.1.15,2013-08-24 06:42:00,
2013-08-24 01:43:00,67.6,63.3,28.45,SE,126,0.0,0.0,86,0.00,,,0.00,0,Wunderground v.1.15,2013-08-24 06:43:00,
2013-08-24 01:45:00,67.7,63.4,28.45,N/A,-737280,0.0,-999.0,86,0.00,,,0.03,,Wunderground v.1.15,2013-08-24 06:45:00,
2013-08-24 01:47:00,67.8,63.5,28.45,East,96,0.0,0.0,86,0.00,,,0.00,0,Wunderground v.1.15,2013-08-24 06:47:00,
2013-08-24 01:48:00,67.8,63.5,28.46,East,97,0.0,0.0,86,0.00,,,0.00,0,Wunderground v.1.15,2013-08-24 06:48:00,
2013-08-24 01:50:00,67.9,63.6,28.45,ESE,108,0.0,0.0,86,0.00,,,0.00,0,Wunderground v.1.15,2013-08-24 06:50:00,
2013-08-24 01:51:00,67.9,63.6,28.45,South,187,0.0,0.0,86,0.00,,,0.00,0,Wunderground v.1.15,2013-08-24 06:51:00,
2013-08-24 01:54:00,68.0,63.7,28.45,East,90,0.0,0.0,86,0.00,,,0.00,0,Wunderground v.1.15,2013-08-24 06:54:00,
2013-08-24 01:55:00,68.0,63.7,28.45,East,89,0.0,0.0,86,0.00,,,0.00,0,Wunderground v.1.15,2013-08-24 06:55:00,
2013-08-24 01:56:00,68.1,63.8,28.45,SE,134,0.0,0.0,86,0.00,,,0.00,0,Wunderground v.1.15,2013-08-24 06:56:00,
2013-08-24 01:57:00,68.1,63.8,28.45,SE,134,0.0,0.0,86,0.00,,,0.00,0,Wunderground v.1.15,2013-08-24 06:57:00,
2013-08-24 02:00:00,68.2,63.9,28.44,N/A,-737280,0.0,-999.0,86,0.00,,,0.03,,Wunderground v.1.15,2013-08-24 07:00:00,
2013-08-24 02:02:00,68.1,63.8,28.45,SW,223,0.0,0.0,86,0.00,,,0.00,0,Wunderground v.1.15,2013-08-24 07:02:00,
2013-08-24 02:05:00,68.2,63.9,28.44,N/A,-737280,0.0,-999.0,86,0.00,,,0.03,,Wunderground v.1.15,2013-08-24 07:05:00,
2013-08-24 02:07:00,68.2,63.9,28.45,South,189,0.0,0.0,86,0.00,,,0.00,0,Wunderground v.1.15,2013-08-24 07:07:00,
2013-08-24 02:10:00,68.1,64.1,28.44,N/A,-737280,0.0,-999.0,87,0.00,,,0.03,,Wunderground v.1.15,2013-08-24 07:10:00,
2013-08-24 02:12:00,68.1,64.1,28.45,SSW,200,0.0,0.0,87,0.00,,,0.00,0,Wunderground v.1.15,2013-08-24 07:12:00,
2013-08-24 02:13:00,68.1,64.1,28.44,SSW,200,0.0,0.0,87,0.00,,,0.00,0,Wunderground v.1.15,2013-08-24 07:13:00,
2013-08-24 02:15:00,68.1,64.1,28.44,N/A,-737280,0.0,-999.0,87,0.00,,,0.03,,Wunderground v.1.15,2013-08-24 07:15:00,
2013-08-24 02:17:00,68.1,64.1,28.44,East,83,0.0,0.0,87,0.00,,,0.00,0,Wunderground v.1.15,2013-08-24 07:17:00,
2013-08-24 02:18:00,68.1,64.1,28.44,East,83,0.0,0.0,87,0.00,,,0.00,0,Wunderground v.1.15,2013-08-24 07:18:00,
2013-08-24 02:20:00,68.1,64.1,28.44,N/A,-737280,0.0,-999.0,87,0.00,,,0.03,,Wunderground v.1.15,2013-08-24 07:20:00,
2013-08-24 02:22:00,68.1,64.1,28.44,SSE,152,0.0,0.0,87,0.00,,,0.00,0,Wunderground v.1.15,2013-08-24 07:22:00,
2013-08-24 02:23:00,68.1,64.1,28.44,SSE,152,0.0,0.0,87,0.00,,,0.00,0,Wunderground v.1.15,2013-08-24 07:23:00,
2013-08-24 02:25:00,68.1,64.4,28.44,N/A,-737280,0.0,-999.0,88,0.00,,,0.03,,Wunderground v.1.15,2013-08-24 07:25:00,
2013-08-24 02:27:00,68.1,64.4,28.45,SE,124,0.0,0.0,88,0.00,,,0.00,0,Wunderground v.1.15,2013-08-24 07:27:00,
2013-08-24 02:28:00,68.1,64.4,28.45,SE,124,0.0,0.0,88,0.00,,,0.00,0,Wunderground v.1.15,2013-08-24 07:28:00,
2013-08-24 02:30:00,68.1,64.1,28.44,N/A,-737280,0.0,-999.0,87,0.00,,,0.03,,Wunderground v.1.15,2013-08-24 07:30:00,
2013-08-24 02:33:00,68.1,64.4,28.45,ESE,123,0.0,0.0,88,0.00,,,0.00,0,Wunderground v.1.15,2013-08-24 07:33:00,
2013-08-24 02:35:00,68.1,64.4,28.44,N/A,-737280,0.0,-999.0,88,0.00,,,0.03,,Wunderground v.1.15,2013-08-24 07:35:00,
2013-08-24 02:38:00,68.0,64.3,28.45,ESE,118,0.0,0.0,88,0.00,,,0.00,0,Wunderground v.1.15,2013-08-24 07:38:00,
2013-08-24 02:39:00,68.0,64.3,28.45,ESE,118,0.0,0.0,88,0.00,,,0.00,0,Wunderground v.1.15,2013-08-24 07:39:00,
2013-08-24 02:40:00,68.0,64.3,28.44,N/A,-737280,0.0,-999.0,88,0.00,,,0.03,,Wunderground v.1.15,2013-08-24 07:40:00,
2013-08-24 02:43:00,67.9,64.2,28.44,East,97,0.0,0.0,88,0.00,,,0.00,0,Wunderground v.1.15,2013-08-24 07:43:00,
2013-08-24 02:44:00,67.9,64.5,28.44,East,97,0.0,0.0,89,0.00,,,0.00,0,Wunderground v.1.15,2013-08-24 07:44:00,
2013-08-24 02:45:00,67.9,64.5,28.44,N/A,-737280,0.0,-999.0,89,0.00,,,0.03,,Wunderground v.1.15,2013-08-24 07:45:00,
2013-08-24 02:49:00,67.8,64.4,28.44,East,96,0.0,0.0,89,0.00,,,0.00,0,Wunderground v.1.15,2013-08-24 07:49:00,
2013-08-24 02:50:00,67.8,64.4,28.44,N/A,-737280,0.0,-999.0,89,0.00,,,0.03,,Wunderground v.1.15,2013-08-24 07:50:00,
2013-08-24 02:54:00,67.8,64.8,28.44,East,96,0.0,0.0,90,0.00,,,0.00,0,Wunderground v.1.15,2013-08-24 07:54:00,
2013-08-24 02:55:00,67.8,64.8,28.44,N/A,-737280,0.0,-999.0,90,0.00,,,0.03,,Wunderground v.1.15,2013-08-24 07:55:00,
2013-08-24 02:59:00,67.8,64.8,28.44,East,96,0.0,0.0,90,0.00,,,0.00,0,Wunderground v.1.15,2013-08-24 07:59:00,
2013-08-24 03:00:00,67.8,64.8,28.44,N/A,-737280,0.0,-999.0,90,0.00,,,0.03,,Wunderground v.1.15,2013-08-24 08:00:00,
2013-08-24 03:04:00,67.8,65.1,28.44,East,96,0.0,0.0,91,0.00,,,0.00,0,Wunderground v.1.15,2013-08-24 08:04:00,
2013-08-24 03:05:00,67.8,64.8,28.44,East,96,0.0,0.0,90,0.00,,,0.00,0,Wunderground v.1.15,2013-08-24 08:05:00,
2013-08-24 03:09:00,67.8,65.1,28.44,East,96,0.0,0.0,91,0.00,,,0.00,0,Wunderground v.1.15,2013-08-24 08:09:00,
2013-08-24 03:10:00,67.9,65.2,28.44,East,96,0.0,0.0,91,0.00,,,0.00,0,Wunderground v.1.15,2013-08-24 08:10:00,
2013-08-24 03:14:00,68.0,65.6,28.44,SSE,164,0.0,0.0,92,0.00,,,0.00,0,Wunderground v.1.15,2013-08-24 08:14:00,
2013-08-24 03:15:00,68.0,65.3,28.44,SSE,164,0.0,0.0,91,0.00,,,0.00,0,Wunderground v.1.15,2013-08-24 08:15:00,
2013-08-24 03:17:00,68.2,65.5,28.44,SE,146,0.0,0.0,91,0.00,,,0.00,0,Wunderground v.1.15,2013-08-24 08:17:00,
2013-08-24 03:19:00,68.3,65.9,28.44,SSE,160,0.0,0.0,92,0.00,,,0.00,0,Wunderground v.1.15,2013-08-24 08:19:00,
2013-08-24 03:20:00,68.4,66.0,28.44,SSE,162,0.0,0.0,92,0.00,,,0.00,0,Wunderground v.1.15,2013-08-24 08:20:00,
2013-08-24 03:21:00,68.4,65.7,28.44,SSE,161,0.0,0.0,91,0.00,,,0.00,0,Wunderground v.1.15,2013-08-24 08:21:00,
2013-08-24 03:22:00,68.5,65.8,28.44,SSE,161,0.0,0.0,91,0.00,,,0.00,0,Wunderground v.1.15,2013-08-24 08:22:00,
2013-08-24 03:24:00,68.7,66.3,28.44,SSE,163,0.0,0.0,92,0.00,,,0.00,0,Wunderground v.1.15,2013-08-24 08:24:00,
2013-08-24 03:25:00,68.7,66.3,28.44,South,171,0.0,1.0,92,0.00,,,0.00,0,Wunderground v.1.15,2013-08-24 08:25:00,
2013-08-24 03:26:00,68.8,66.4,28.44,South,171,0.0,1.0,92,0.00,,,0.00,0,Wunderground v.1.15,2013-08-24 08:26:00,
2013-08-24 03:27:00,68.9,66.5,28.44,South,171,0.0,1.0,92,0.00,,,0.00,0,Wunderground v.1.15,2013-08-24 08:27:00,
2013-08-24 03:29:00,69.1,66.7,28.44,South,183,0.0,1.0,92,0.00,,,0.00,0,Wunderground v.1.15,2013-08-24 08:29:00,
2013-08-24 03:30:00,69.2,66.8,28.44,South,190,0.0,1.0,92,0.00,,,0.00,0,Wunderground v.1.15,2013-08-24 08:30:00,
2013-08-24 03:31:00,69.3,66.9,28.43,South,188,0.0,1.0,92,0.00,,,0.00,0,Wunderground v.1.15,2013-08-24 08:31:00,
2013-08-24 03:32:00,69.4,67.0,28.43,South,185,0.0,3.0,92,0.00,,,0.00,0,Wunderground v.1.15,2013-08-24 08:32:00,
2013-08-24 03:33:00,69.5,67.1,28.43,South,186,0.0,3.0,92,0.00,,,0.00,0,Wunderground v.1.15,2013-08-24 08:33:00,
2013-08-24 03:34:00,69.6,66.9,28.43,South,185,0.0,3.0,91,0.00,,,0.00,0,Wunderground v.1.15,2013-08-24 08:34:00,
2013-08-24 03:35:00,69.8,67.4,28.43,South,180,0.0,-999.0,92,0.00,,,0.03,,Wunderground v.1.15,2013-08-24 08:35:00,
2013-08-24 03:36:00,69.8,67.4,28.44,South,185,0.0,3.0,92,0.00,,,0.00,0,Wunderground v.1.15,2013-08-24 08:36:00,
2013-08-24 03:37:00,69.9,67.5,28.43,South,186,0.0,3.0,92,0.00,,,0.00,0,Wunderground v.1.15,2013-08-24 08:37:00,
2013-08-24 03:38:00,70.0,67.6,28.44,South,180,0.0,6.0,92,0.00,,,0.00,0,Wunderground v.1.15,2013-08-24 08:38:00,
2013-08-24 03:40:00,70.1,67.7,28.43,ESE,112,0.0,6.0,92,0.00,,,0.00,0,Wunderground v.1.15,2013-08-24 08:40:00,
2013-08-24 03:41:00,70.3,67.5,28.44,SSE,159,0.0,0.0,91,0.00,,,0.00,0,Wunderground v.1.15,2013-08-24 08:41:00,
2013-08-24 03:42:00,70.3,67.5,28.44,South,184,5.0,5.0,91,0.00,,,0.00,0,Wunderground v.1.15,2013-08-24 08:42:00,
2013-08-24 03:44:00,70.6,67.8,28.44,South,183,3.0,5.0,91,0.00,,,0.00,0,Wunderground v.1.15,2013-08-24 08:44:00,
2013-08-24 03:45:00,70.7,67.9,28.44,SSW,192,0.0,5.0,91,0.00,,,0.00,0,Wunderground v.1.15,2013-08-24 08:45:00,
2013-08-24 03:47:00,70.9,68.1,28.44,SSW,205,0.0,5.0,91,0.00,,,0.00,0,Wunderground v.1.15,2013-08-24 08:47:00,
2013-08-24 03:49:00,71.1,68.3,28.43,SE,146,0.0,5.0,91,0.00,,,0.00,0,Wunderground v.1.15,2013-08-24 08:49:00,
2013-08-24 03:50:00,71.2,68.4,28.43,SSW,210,0.0,5.0,91,0.00,,,0.00,0,Wunderground v.1.15,2013-08-24 08:50:00,
2013-08-24 03:52:00,71.3,68.5,28.44,South,189,0.0,0.0,91,0.00,,,0.00,0,Wunderground v.1.15,2013-08-24 08:52:00,
2013-08-24 03:53:00,71.3,68.5,28.44,South,187,0.0,4.0,91,0.00,,,0.00,0,Wunderground v.1.15,2013-08-24 08:53:00,
2013-08-24 03:54:00,71.4,68.3,28.44,South,190,6.0,10.0,90,0.00,,,0.00,0,Wunderground v.1.15,2013-08-24 08:54:00,
2013-08-24 03:55:00,71.5,68.7,28.43,South,190,1.0,10.0,91,0.00,,,0.00,0,Wunderground v.1.15,2013-08-24 08:55:00,
2013-08-24 03:57:00,71.7,68.6,28.43,South,180,3.0,10.0,90,0.00,,,0.00,0,Wunderground v.1.15,2013-08-24 08:57:00,
2013-08-24 03:58:00,71.7,68.9,28.43,SSW,194,0.0,10.0,91,0.00,,,0.00,0,Wunderground v.1.15,2013-08-24 08:58:00,
2013-08-24 03:59:00,71.9,69.1,28.43,SW,220,0.0,10.0,91,0.00,,,0.00,0,Wunderground v.1.15,2013-08-24 08:59:00,
2013-08-24 04:00:00,72.0,68.9,28.43,SSW,195,0.0,10.0,90,0.00,,,0.00,0,Wunderground v.1.15,2013-08-24 09:00:00,
2013-08-24 04:02:00,72.0,68.9,28.43,South,186,5.0,5.0,90,0.00,,,0.00,0,Wunderground v.1.15,2013-08-24 09:02:00,
2013-08-24 04:03:00,72.1,69.0,28.43,South,184,0.0,6.0,90,0.00,,,0.00,0,Wunderground v.1.15,2013-08-24 09:03:00,
2013-08-24 04:04:00,72.1,69.0,28.43,SW,214,0.0,6.0,90,0.00,,,0.00,0,Wunderground v.1.15,2013-08-24 09:04:00,
2013-08-24 04:05:00,72.1,69.0,28.43,South,185,3.0,11.0,90,0.00,,,0.00,0,Wunderground v.1.15,2013-08-24 09:05:00,
2013-08-24 04:07:00,72.2,69.4,28.43,SE,137,0.0,11.0,91,0.00,,,0.00,0,Wunderground v.1.15,2013-08-24 09:07:00,
2013-08-24 04:08:00,72.2,69.1,28.43,South,170,1.0,11.0,90,0.00,,,0.00,0,Wunderground v.1.15,2013-08-24 09:08:00,
2013-08-24 04:09:00,72.3,69.5,28.43,South,179,2.0,11.0,91,0.00,,,0.00,0,Wunderground v.1.15,2013-08-24 09:09:00,
2013-08-24 04:10:00,72.3,69.5,28.43,South,174,0.0,11.0,91,0.00,,,0.00,0,Wunderground v.1.15,2013-08-24 09:10:00,
2013-08-24 04:12:00,72.3,69.2,28.43,South,182,0.0,1.0,90,0.00,,,0.00,0,Wunderground v.1.15,2013-08-24 09:12:00,
2013-08-24 04:13:00,72.3,69.5,28.43,South,188,3.0,5.0,91,0.00,,,0.00,0,Wunderground v.1.15,2013-08-24 09:13:00,
2013-08-24 04:14:00,72.3,69.5,28.43,SSW,207,0.0,5.0,91,0.00,,,0.00,0,Wunderground v.1.15,2013-08-24 09:14:00,
2013-08-24 04:15:00,72.3,69.5,28.43,SSW,209,0.0,5.0,91,0.00,,,0.00,0,Wunderground v.1.15,2013-08-24 09:15:00,
2013-08-24 04:16:00,72.3,69.5,28.43,South,183,1.0,5.0,91,0.00,,,0.00,0,Wunderground v.1.15,2013-08-24 09:16:00,
2013-08-24 04:18:00,72.3,69.5,28.43,SSW,205,0.0,5.0,91,0.00,,,0.00,0,Wunderground v.1.15,2013-08-24 09:18:00,
2013-08-24 04:19:00,72.3,69.5,28.43,South,183,0.0,8.0,91,0.00,,,0.00,0,Wunderground v.1.15,2013-08-24 09:19:00,
2013-08-24 04:20:00,72.3,69.5,28.43,SSW,201,1.0,8.0,91,0.00,,,0.00,0,Wunderground v.1.15,2013-08-24 09:20:00,
2013-08-24 04:21:00,72.3,69.5,28.43,SSW,207,0.0,8.0,91,0.00,,,0.00,0,Wunderground v.1.15,2013-08-24 09:21:00,
2013-08-24 04:23:00,72.3,69.8,28.43,South,190,0.0,5.0,92,0.00,,,0.00,0,Wunderground v.1.15,2013-08-24 09:23:00,
2013-08-24 04:24:00,72.3,69.8,28.43,SW,221,0.0,7.0,92,0.00,,,0.00,0,Wunderground v.1.15,2013-08-24 09:24:00,
2013-08-24 04:25:00,72.4,69.9,28.43,SW,219,0.0,7.0,92,0.00,,,0.00,0,Wunderground v.1.15,2013-08-24 09:25:00,
2013-08-24 04:26:00,72.4,69.9,28.43,SSW,208,0.0,7.0,92,0.00,,,0.00,0,Wunderground v.1.15,2013-08-24 09:26:00,
2013-08-24 04:28:00,72.4,70.3,28.43,SSW,199,0.0,7.0,93,0.00,,,0.00,0,Wunderground v.1.15,2013-08-24 09:28:00,
2013-08-24 04:30:00,72.4,69.9,28.42,South,189,3.0,7.0,92,0.00,,,0.00,0,Wunderground v.1.15,2013-08-24 09:30:00,
2013-08-24 04:31:00,72.4,70.3,28.42,SSW,207,0.0,0.0,93,0.00,,,0.00,0,Wunderground v.1.15,2013-08-24 09:31:00,
2013-08-24 04:33:00,72.5,70.4,28.42,South,171,0.0,5.0,93,0.00,,,0.00,0,Wunderground v.1.15,2013-08-24 09:33:00,
2013-08-24 04:35:00,72.5,70.4,28.42,SSW,192,0.0,5.0,93,0.00,,,0.00,0,Wunderground v.1.15,2013-08-24 09:35:00,
2013-08-24 04:36:00,72.5,70.0,28.42,South,191,0.0,5.0,92,0.00,,,0.00,0,Wunderground v.1.15,2013-08-24 09:36:00,
2013-08-24 04:39:00,72.5,70.4,28.42,SSW,196,0.0,7.0,93,0.00,,,0.00,0,Wunderground v.1.15,2013-08-24 09:39:00,
2013-08-24 04:40:00,72.5,70.4,28.42,South,180,1.0,-999.0,93,0.00,,,0.03,,Wunderground v.1.15,2013-08-24 09:40:00,
2013-08-24 04:41:00,72.5,70.4,28.42,SSW,197,1.0,7.0,93,0.00,,,0.00,0,Wunderground v.1.15,2013-08-24 09:41:00,
2013-08-24 04:42:00,72.6,70.5,28.42,SW,217,0.0,2.0,93,0.00,,,0.00,0,Wunderground v.1.15,2013-08-24 09:42:00,
2013-08-24 04:45:00,72.6,70.5,28.42,SW,220,0.0,8.0,93,0.00,,,0.00,0,Wunderground v.1.15,2013-08-24 09:45:00,
2013-08-24 04:46:00,72.6,70.8,28.42,SSE,154,2.0,8.0,94,0.00,,,0.00,0,Wunderground v.1.15,2013-08-24 09:46:00,
2013-08-24 04:47:00,72.6,70.8,28.42,South,181,0.0,8.0,94,0.00,,,0.00,0,Wunderground v.1.15,2013-08-24 09:47:00,
2013-08-24 04:50:00,72.7,70.9,28.42,SSW,210,0.0,13.0,94,0.00,,,0.00,0,Wunderground v.1.15,2013-08-24 09:50:00,
2013-08-24 04:51:00,72.7,70.9,28.42,SW,222,0.0,13.0,94,0.00,,,0.00,0,Wunderground v.1.15,2013-08-24 09:51:00,
2013-08-24 04:52:00,72.8,71.0,28.42,South,183,3.0,5.0,94,0.00,,,0.00,0,Wunderground v.1.15,2013-08-24 09:52:00,
2013-08-24 04:55:00,72.8,71.0,28.42,South,180,4.0,8.0,94,0.00,,,0.00,0,Wunderground v.1.15,2013-08-24 09:55:00,
2013-08-24 04:56:00,72.8,71.0,28.42,SSW,197,0.0,8.0,94,0.00,,,0.00,0,Wunderground v.1.15,2013-08-24 09:56:00,
2013-08-24 04:57:00,72.8,71.0,28.42,SSW,199,0.0,8.0,94,0.00,,,0.00,0,Wunderground v.1.15,2013-08-24 09:57:00,
2013-08-24 05:00:00,72.8,71.0,28.42,South,180,2.0,-999.0,94,0.00,,,0.03,,Wunderground v.1.15,2013-08-24 10:00:00,
2013-08-24 05:01:00,72.8,71.0,28.42,SSW,202,5.0,8.0,94,0.00,,,0.00,0,Wunderground v.1.15,2013-08-24 10:01:00,
2013-08-24 05:02:00,72.8,71.0,28.42,SSE,157,0.0,6.0,94,0.00,,,0.00,0,Wunderground v.1.15,2013-08-24 10:02:00,
2013-08-24 05:05:00,72.8,71.0,28.42,N/A,-737280,0.0,-999.0,94,0.00,,,0.03,,Wunderground v.1.15,2013-08-24 10:05:00,
2013-08-24 05:06:00,72.8,71.0,28.42,South,190,0.0,9.0,94,0.00,,,0.00,0,Wunderground v.1.15,2013-08-24 10:06:00,
2013-08-24 05:07:00,72.8,71.0,28.42,SSW,201,0.0,9.0,94,0.00,,,0.00,0,Wunderground v.1.15,2013-08-24 10:07:00,
2013-08-24 05:10:00,72.8,71.3,28.42,SSW,203,3.0,-999.0,95,0.00,,,0.03,,Wunderground v.1.15,2013-08-24 10:10:00,
2013-08-24 05:11:00,72.8,71.3,28.42,SSW,197,0.0,9.0,95,0.00,,,0.00,0,Wunderground v.1.15,2013-08-24 10:11:00,
2013-08-24 05:12:00,72.8,71.3,28.42,SSW,201,0.0,7.0,95,0.00,,,0.00,0,Wunderground v.1.15,2013-08-24 10:12:00,
2013-08-24 05:15:00,72.8,71.3,28.42,SW,225,2.0,-999.0,95,0.00,,,0.03,,Wunderground v.1.15,2013-08-24 10:15:00,
2013-08-24 05:16:00,72.8,71.3,28.42,SW,217,0.0,7.0,95,0.00,,,0.00,0,Wunderground v.1.15,2013-08-24 10:16:00,
2013-08-24 05:17:00,72.8,71.3,28.42,South,190,5.0,10.0,95,0.00,,,0.00,0,Wunderground v.1.15,2013-08-24 10:17:00,
2013-08-24 05:18:00,72.8,71.3,28.42,SSW,207,2.0,13.0,95,0.00,,,0.00,0,Wunderground v.1.15,2013-08-24 10:18:00,
2013-08-24 05:20:00,72.9,71.4,28.41,SW,225,2.0,-999.0,95,0.00,,,0.03,,Wunderground v.1.15,2013-08-24 10:20:00,
2013-08-24 05:21:00,72.9,71.4,28.42,SW,217,5.0,7.0,95,0.00,,,0.00,0,Wunderground v.1.15,2013-08-24 10:21:00,
2013-08-24 05:22:00,72.9,71.7,28.42,South,179,0.0,7.0,96,0.00,,,0.00,0,Wunderground v.1.15,2013-08-24 10:22:00,
2013-08-24 05:23:00,72.9,71.7,28.42,South,181,0.0,7.0,96,0.00,,,0.00,0,Wunderground v.1.15,2013-08-24 10:23:00,
2013-08-24 05:25:00,72.9,71.4,28.42,South,180,5.0,-999.0,95,0.00,,,0.03,,Wunderground v.1.15,2013-08-24 10:25:00,
2013-08-24 05:27:00,72.9,71.7,28.42,SSW,194,3.0,10.0,96,0.00,,,0.00,0,Wunderground v.1.15,2013-08-24 10:27:00,
2013-08-24 05:28:00,72.9,71.7,28.42,South,187,2.0,10.0,96,0.00,,,0.00,0,Wunderground v.1.15,2013-08-24 10:28:00,
2013-08-24 05:30:00,72.8,71.6,28.42,SSW,203,2.0,-999.0,96,0.00,,,0.03,,Wunderground v.1.15,2013-08-24 10:30:00,
2013-08-24 05:32:00,72.8,71.6,28.42,South,182,2.0,2.0,96,0.00,,,0.00,0,Wunderground v.1.15,2013-08-24 10:32:00,
2013-08-24 05:33:00,72.8,71.6,28.42,SSW,207,2.0,7.0,96,0.00,,,0.00,0,Wunderground v.1.15,2013-08-24 10:33:00,
2013-08-24 05:35:00,72.8,71.6,28.41,SSW,203,1.0,-999.0,96,0.00,,,0.03,,Wunderground v.1.15,2013-08-24 10:35:00,
2013-08-24 05:37:00,72.8,71.6,28.42,South,189,0.0,9.0,96,0.00,,,0.00,0,Wunderground v.1.15,2013-08-24 10:37:00,
2013-08-24 05:38:00,72.8,71.9,28.42,SSW,197,0.0,9.0,97,0.00,,,0.00,0,Wunderground v.1.15,2013-08-24 10:38:00,
2013-08-24 05:40:00,72.8,71.6,28.41,SSW,203,1.0,-999.0,96,0.00,,,0.03,,Wunderground v.1.15,2013-08-24 10:40:00,
2013-08-24 05:42:00,72.8,71.9,28.41,SSW,210,0.0,6.0,97,0.00,,,0.00,0,Wunderground v.1.15,2013-08-24 10:42:00,
2013-08-24 05:43:00,72.8,71.9,28.41,SSW,205,0.0,6.0,97,0.00,,,0.00,0,Wunderground v.1.15,2013-08-24 10:43:00,
2013-08-24 05:44:00,72.8,71.9,28.42,SSW,204,0.0,6.0,97,0.00,,,0.00,0,Wunderground v.1.15,2013-08-24 10:44:00,
2013-08-24 05:45:00,72.8,71.9,28.41,SSW,203,3.0,-999.0,97,0.00,,,0.03,,Wunderground v.1.15,2013-08-24 10:45:00,
2013-08-24 05:47:00,72.8,71.9,28.42,SSE,147,6.0,12.0,97,0.00,,,0.00,0,Wunderground v.1.15,2013-08-24 10:47:00,
2013-08-24 05:49:00,72.8,71.9,28.42,SSW,195,4.0,12.0,97,0.00,,,0.00,0,Wunderground v.1.15,2013-08-24 10:49:00,
2013-08-24 05:50:00,72.8,71.9,28.42,SSW,201,0.0,12.0,97,0.00,,,0.00,0,Wunderground v.1.15,2013-08-24 10:50:00,
2013-08-24 05:52:00,72.8,71.9,28.42,SSW,201,0.0,6.0,97,0.00,,,0.00,0,Wunderground v.1.15,2013-08-24 10:52:00,
2013-08-24 05:54:00,72.8,71.9,28.42,ESE,119,0.0,6.0,97,0.00,,,0.00,0,Wunderground v.1.15,2013-08-24 10:54:00,
2013-08-24 05:55:00,72.8,71.9,28.42,SW,217,0.0,6.0,97,0.00,,,0.00,0,Wunderground v.1.15,2013-08-24 10:55:00,
2013-08-24 05:58:00,72.8,71.9,28.42,SSW,193,0.0,6.0,97,0.00,,,0.00,0,Wunderground v.1.15,2013-08-24 10:58:00,
2013-08-24 05:59:00,72.8,71.9,28.42,SSW,202,0.0,6.0,97,0.00,,,0.00,0,Wunderground v.1.15,2013-08-24 10:59:00,
2013-08-24 06:00:00,72.8,72.2,28.42,SSW,203,5.0,-999.0,98,0.00,,,0.03,,Wunderground v.1.15,2013-08-24 11:00:00,
2013-08-24 06:01:00,72.8,72.2,28.42,SSW,200,3.0,3.0,98,0.00,,,0.00,0,Wunderground v.1.15,2013-08-24 11:01:00,
2013-08-24 06:03:00,72.8,72.2,28.42,South,185,7.0,9.0,98,0.00,,,0.00,0,Wunderground v.1.15,2013-08-24 11:03:00,
2013-08-24 06:04:00,72.8,72.2,28.42,South,185,0.0,9.0,98,0.00,,,0.00,0,Wunderground v.1.15,2013-08-24 11:04:00,
2013-08-24 06:05:00,72.8,72.2,28.42,South,180,0.0,-999.0,98,0.00,,,0.03,,Wunderground v.1.15,2013-08-24 11:05:00,
2013-08-24 06:07:00,72.8,72.2,28.42,South,185,5.0,9.0,98,0.00,,,0.00,0,Wunderground v.1.15,2013-08-24 11:07:00,
2013-08-24 06:08:00,72.8,72.2,28.42,SSW,194,0.0,9.0,98,0.00,,,0.00,0,Wunderground v.1.15,2013-08-24 11:08:00,
2013-08-24 06:09:00,72.8,72.2,28.42,South,190,0.0,9.0,98,0.00,,,0.00,0,Wunderground v.1.15,2013-08-24 11:09:00,
2013-08-24 06:10:00,72.8,72.2,28.42,South,175,2.0,9.0,98,0.00,,,0.00,0,Wunderground v.1.15,2013-08-24 11:10:00,
2013-08-24 06:13:00,72.8,72.2,28.42,SSW,195,4.0,8.0,98,0.00,,,0.00,0,Wunderground v.1.15,2013-08-24 11:13:00,
2013-08-24 06:15:00,72.8,72.5,28.42,South,184,7.0,9.0,99,0.00,,,0.00,0,Wunderground v.1.15,2013-08-24 11:15:00,
2013-08-24 06:18:00,72.8,72.2,28.42,South,169,10.0,10.0,98,0.00,,,0.00,0,Wunderground v.1.15,2013-08-24 11:18:00,
2013-08-24 06:19:00,72.8,72.2,28.42,South,175,6.0,10.0,98,0.00,,,0.00,0,Wunderground v.1.15,2013-08-24 11:19:00,
2013-08-24 06:20:00,72.8,72.5,28.42,South,183,4.0,10.0,99,0.00,,,0.00,0,Wunderground v.1.15,2013-08-24 11:20:00,
2013-08-24 06:23:00,72.7,72.4,28.42,South,169,4.0,5.0,99,0.00,,,0.00,0,Wunderground v.1.15,2013-08-24 11:23:00,
2013-08-24 06:25:00,72.8,72.5,28.42,South,176,4.0,12.0,99,0.00,,,0.00,0,Wunderground v.1.15,2013-08-24 11:25:00,
2013-08-24 06:28:00,72.7,72.4,28.42,South,171,1.0,12.0,99,0.00,,,0.00,0,Wunderground v.1.15,2013-08-24 11:28:00,
2013-08-24 06:29:00,72.7,72.4,28.42,SSW,199,2.0,12.0,99,0.00,,,0.00,0,Wunderground v.1.15,2013-08-24 11:29:00,
2013-08-24 06:30:00,72.7,72.4,28.42,SSW,192,0.0,12.0,99,0.00,,,0.00,0,Wunderground v.1.15,2013-08-24 11:30:00,
2013-08-24 06:31:00,72.7,72.4,28.42,SW,223,0.0,12.0,99,0.00,,,0.00,0,Wunderground v.1.15,2013-08-24 11:31:00,
2013-08-24 06:33:00,72.7,72.4,28.41,South,175,5.0,8.0,99,0.00,,,0.00,0,Wunderground v.1.15,2013-08-24 11:33:00,
2013-08-24 06:35:00,72.7,72.4,28.41,SSW,200,0.0,8.0,99,0.00,,,0.00,0,Wunderground v.1.15,2013-08-24 11:35:00,
2013-08-24 06:36:00,72.7,72.4,28.41,South,175,0.0,8.0,99,0.00,,,0.00,0,Wunderground v.1.15,2013-08-24 11:36:00,
2013-08-24 06:38:00,72.7,72.7,28.41,South,175,0.0,8.0,100,0.00,,,0.00,0,Wunderground v.1.15,2013-08-24 11:38:00,
2013-08-24 06:40:00,72.7,72.7,28.41,South,180,5.0,-999.0,100,0.00,,,0.03,,Wunderground v.1.15,2013-08-24 11:40:00,
2013-08-24 06:41:00,72.7,72.4,28.41,SSW,202,6.0,9.0,99,0.00,,,0.00,0,Wunderground v.1.15,2013-08-24 11:41:00,
2013-08-24 06:43:00,72.7,72.7,28.41,South,179,5.0,9.0,100,0.00,,,0.00,0,Wunderground v.1.15,2013-08-24 11:43:00,
2013-08-24 06:45:00,72.8,72.8,28.41,South,180,3.0,-999.0,100,0.00,,,0.03,,Wunderground v.1.15,2013-08-24 11:45:00,
2013-08-24 06:46:00,72.8,72.8,28.41,South,185,3.0,9.0,100,0.00,,,0.00,0,Wunderground v.1.15,2013-08-24 11:46:00,
2013-08-24 06:49:00,72.8,72.8,28.42,South,188,4.0,9.0,100,0.00,,,0.00,0,Wunderground v.1.15,2013-08-24 11:49:00,
2013-08-24 06:50:00,72.8,72.8,28.41,N/A,-737280,0.0,-999.0,100,0.00,,,0.03,,Wunderground v.1.15,2013-08-24 11:50:00,
2013-08-24 06:51:00,72.8,72.8,28.41,South,174,0.0,10.0,100,0.00,,,0.00,0,Wunderground v.1.15,2013-08-24 11:51:00,
2013-08-24 06:54:00,72.8,72.8,28.41,South,182,0.0,8.0,100,0.00,,,0.00,0,Wunderground v.1.15,2013-08-24 11:54:00,
2013-08-24 06:55:00,72.8,72.8,28.41,South,180,2.0,-999.0,100,0.00,,,0.03,,Wunderground v.1.15,2013-08-24 11:55:00,
2013-08-24 06:56:00,72.8,72.8,28.41,South,178,4.0,8.0,100,0.00,,,0.00,0,Wunderground v.1.15,2013-08-24 11:56:00,
2013-08-24 07:00:00,72.9,72.9,28.41,SW,232,4.0,9.0,100,0.00,,,0.00,0,Wunderground v.1.15,2013-08-24 12:00:00,
2013-08-24 07:01:00,72.9,72.9,28.41,SW,223,0.0,0.0,100,0.00,,,0.00,0,Wunderground v.1.15,2013-08-24 12:01:00,
2013-08-24 07:02:00,72.9,72.9,28.41,SW,235,3.0,3.0,100,0.00,,,0.00,0,Wunderground v.1.15,2013-08-24 12:02:00,
2013-08-24 07:05:00,73.0,73.0,28.41,SSW,210,4.0,12.0,100,0.00,,,0.00,0,Wunderground v.1.15,2013-08-24 12:05:00,
2013-08-24 07:07:00,73.0,73.0,28.41,South,179,3.0,12.0,100,0.00,,,0.00,0,Wunderground v.1.15,2013-08-24 12:07:00,
2013-08-24 07:10:00,73.1,73.1,28.41,SSW,192,4.0,12.0,100,0.00,,,0.00,0,Wunderground v.1.15,2013-08-24 12:10:00,
2013-08-24 07:12:00,73.1,73.1,28.41,SSW,201,0.0,1.0,100,0.00,,,0.00,0,Wunderground v.1.15,2013-08-24 12:12:00,
2013-08-24 07:15:00,73.1,73.1,28.41,SSW,212,0.0,7.0,100,0.00,,,0.00,0,Wunderground v.1.15,2013-08-24 12:15:00,
2013-08-24 07:17:00,73.1,73.1,28.41,South,190,3.0,7.0,100,0.00,,,0.00,0,Wunderground v.1.15,2013-08-24 12:17:00,
2013-08-24 07:18:00,73.1,73.1,28.41,South,186,0.0,7.0,100,0.00,,,0.00,0,Wunderground v.1.15,2013-08-24 12:18:00,
2013-08-24 07:20:00,73.2,73.2,28.40,South,180,7.0,-999.0,100,0.00,,,0.03,,Wunderground v.1.15,2013-08-24 12:20:00,
2013-08-24 07:21:00,73.2,73.2,28.40,South,180,2.0,10.0,100,0.00,,,0.00,0,Wunderground v.1.15,2013-08-24 12:21:00,
2013-08-24 07:22:00,73.2,73.2,28.41,SSW,197,0.0,11.0,100,0.00,,,0.00,0,Wunderground v.1.15,2013-08-24 12:22:00,
2013-08-24 07:23:00,73.2,73.2,28.41,SSW,199,3.0,11.0,100,0.00,,,0.00,0,Wunderground v.1.15,2013-08-24 12:23:00,
2013-08-24 07:25:00,73.3,73.3,28.40,SW,225,1.0,-999.0,100,0.00,,,0.03,,Wunderground v.1.15,2013-08-24 12:25:00,
2013-08-24 07:26:00,73.3,73.3,28.40,SW,220,6.0,11.0,100,0.00,,,0.00,0,Wunderground v.1.15,2013-08-24 12:26:00,
2013-08-24 07:28:00,73.3,73.3,28.40,SSW,206,0.0,11.0,100,0.00,,,0.00,0,Wunderground v.1.15,2013-08-24 12:28:00,
2013-08-24 07:30:00,73.3,73.3,28.40,SSW,203,2.0,-999.0,100,0.00,,,0.03,,Wunderground v.1.15,2013-08-24 12:30:00,
2013-08-24 07:31:00,73.3,73.3,28.40,SW,222,0.0,5.0,100,0.00,,,0.00,0,Wunderground v.1.15,2013-08-24 12:31:00,
2013-08-24 07:33:00,73.3,73.3,28.40,SSE,162,0.0,5.0,100,0.00,,,0.00,0,Wunderground v.1.15,2013-08-24 12:33:00,
2013-08-24 07:35:00,73.4,73.4,28.40,SW,225,2.0,-999.0,100,0.00,,,0.03,,Wunderground v.1.15,2013-08-24 12:35:00,
2013-08-24 07:36:00,73.4,73.4,28.40,SSE,164,0.0,9.0,100,0.00,,,0.00,0,Wunderground v.1.15,2013-08-24 12:36:00,
2013-08-24 07:38:00,73.4,73.4,28.40,South,178,4.0,9.0,100,0.00,,,0.00,0,Wunderground v.1.15,2013-08-24 12:38:00,
2013-08-24 07:39:00,73.4,73.4,28.39,SW,214,1.0,9.0,100,0.00,,,0.00,0,Wunderground v.1.15,2013-08-24 12:39:00,
2013-08-24 07:40:00,73.4,73.4,28.40,South,180,2.0,-999.0,100,0.00,,,0.03,,Wunderground v.1.15,2013-08-24 12:40:00,
2013-08-24 07:42:00,73.5,73.5,28.40,SSE,147,0.0,5.0,100,0.00,,,0.00,0,Wunderground v.1.15,2013-08-24 12:42:00,
2013-08-24 07:43:00,73.5,73.5,28.40,SW,214,0.0,5.0,100,0.00,,,0.00,0,Wunderground v.1.15,2013-08-24 12:43:00,
2013-08-24 07:44:00,73.5,73.5,28.40,SSW,203,0.0,9.0,100,0.00,,,0.00,0,Wunderground v.1.15,2013-08-24 12:44:00,
2013-08-24 07:45:00,73.5,73.5,28.39,WSW,248,1.0,-999.0,100,0.00,,,0.03,,Wunderground v.1.15,2013-08-24 12:45:00,
2013-08-24 07:47:00,73.5,73.5,28.39,South,174,0.0,12.0,100,0.00,,,0.00,0,Wunderground v.1.15,2013-08-24 12:47:00,
2013-08-24 07:48:00,73.6,73.6,28.39,South,190,4.0,12.0,100,0.00,,,0.00,0,Wunderground v.1.15,2013-08-24 12:48:00,
2013-08-24 07:49:00,73.6,73.6,28.39,South,170,7.0,12.0,100,0.00,,,0.00,0,Wunderground v.1.15,2013-08-24 12:49:00,
2013-08-24 07:50:00,73.7,73.7,28.39,SSW,203,2.0,-999.0,100,0.00,,,0.03,,Wunderground v.1.15,2013-08-24 12:50:00,
2013-08-24 07:53:00,73.7,73.7,28.39,SW,219,0.0,6.0,100,0.00,,,0.00,0,Wunderground v.1.15,2013-08-24 12:53:00,
2013-08-24 07:54:00,73.7,73.7,28.39,South,174,0.0,6.0,100,0.00,,,0.00,0,Wunderground v.1.15,2013-08-24 12:54:00,
2013-08-24 07:55:00,73.8,73.8,28.39,South,187,0.0,6.0,100,0.00,,,0.00,0,Wunderground v.1.15,2013-08-24 12:55:00,
2013-08-24 07:58:00,73.8,73.8,28.39,South,181,4.0,10.0,100,0.00,,,0.00,0,Wunderground v.1.15,2013-08-24 12:58:00,
2013-08-24 07:59:00,73.9,73.9,28.39,South,187,0.0,10.0,100,0.00,,,0.00,0,Wunderground v.1.15,2013-08-24 12:59:00,
2013-08-24 08:00:00,73.9,73.9,28.39,SW,223,0.0,10.0,100,0.00,,,0.00,0,Wunderground v.1.15,2013-08-24 13:00:00,
2013-08-24 08:03:00,74.0,74.0,28.39,South,172,0.0,7.0,100,0.00,,,0.00,0,Wunderground v.1.15,2013-08-24 13:03:00,
2013-08-24 08:05:00,74.0,74.0,28.38,SSW,213,0.0,7.0,100,0.00,,,0.00,0,Wunderground v.1.15,2013-08-24 13:05:00,
2013-08-24 08:08:00,74.1,74.1,28.38,South,184,5.0,10.0,100,0.00,,,0.00,0,Wunderground v.1.15,2013-08-24 13:08:00,
2013-08-24 08:10:00,74.1,74.1,28.38,SSE,168,0.0,10.0,100,0.00,,,0.00,0,Wunderground v.1.15,2013-08-24 13:10:00,
2013-08-24 08:11:00,74.1,74.1,28.38,South,180,7.0,10.0,100,0.00,,,0.00,0,Wunderground v.1.15,2013-08-24 13:11:00,
2013-08-24 08:13:00,74.1,74.1,28.38,South,177,4.0,11.0,100,0.00,,,0.00,0,Wunderground v.1.15,2013-08-24 13:13:00,
2013-08-24 08:14:00,74.1,74.1,28.38,South,189,0.0,11.0,100,0.00,,,0.00,0,Wunderground v.1.15,2013-08-24 13:14:00,
2013-08-24 08:15:00,74.2,74.2,28.38,SW,218,0.0,11.0,100,0.00,,,0.00,0,Wunderground v.1.15,2013-08-24 13:15:00,
2013-08-24 08:16:00,74.2,74.2,28.38,SW,220,0.0,11.0,100,0.00,,,0.00,0,Wunderground v.1.15,2013-08-24 13:16:00,
2013-08-24 08:19:00,74.3,74.3,28.37,South,172,0.0,11.0,100,0.00,,,0.00,0,Wunderground v.1.15,2013-08-24 13:19:00,
2013-08-24 08:20:00,74.3,74.0,28.37,SW,221,1.0,16.0,99,0.00,,,0.00,0,Wunderground v.1.15,2013-08-24 13:20:00,
2013-08-24 08:21:00,74.3,74.0,28.37,South,191,5.0,16.0,99,0.00,,,0.00,0,Wunderground v.1.15,2013-08-24 13:21:00,
2013-08-24 08:24:00,74.4,74.1,28.37,SSW,197,3.0,15.0,99,0.00,,,0.00,0,Wunderground v.1.15,2013-08-24 13:24:00,
2013-08-24 08:25:00,74.4,74.1,28.37,South,171,5.0,15.0,99,0.00,,,0.00,0,Wunderground v.1.15,2013-08-24 13:25:00,
2013-08-24 08:26:00,74.4,74.1,28.37,South,182,5.0,15.0,99,0.00,,,0.00,0,Wunderground v.1.15,2013-08-24 13:26:00,
2013-08-24 08:29:00,74.6,74.3,28.37,SSE,164,0.0,15.0,99,0.00,,,0.00,0,Wunderground v.1.15,2013-08-24 13:29:00,
2013-08-24 08:30:00,74.6,74.3,28.37,SSW,196,5.0,15.0,99,0.00,,,0.00,0,Wunderground v.1.15,2013-08-24 13:30:00,
2013-08-24 08:31:00,74.6,74.3,28.37,SW,229,4.0,15.0,99,0.00,,,0.00,0,Wunderground v.1.15,2013-08-24 13:31:00,
2013-08-24 08:34:00,74.8,74.2,28.37,South,190,8.0,12.0,98,0.00,,,0.00,0,Wunderground v.1.15,2013-08-24 13:34:00,
2013-08-24 08:35:00,74.9,74.3,28.37,SSW,198,0.0,12.0,98,0.00,,,0.00,0,Wunderground v.1.15,2013-08-24 13:35:00,
2013-08-24 08:36:00,74.9,74.6,28.37,South,181,7.0,12.0,99,0.00,,,0.00,0,Wunderground v.1.15,2013-08-24 13:36:00,
2013-08-24 08:40:00,74.9,74.3,28.37,SSW,204,6.0,12.0,98,0.00,,,0.00,0,Wunderground v.1.15,2013-08-24 13:40:00,
2013-08-24 08:41:00,75.0,74.4,28.37,South,172,4.0,12.0,98,0.00,,,0.00,0,Wunderground v.1.15,2013-08-24 13:41:00,
2013-08-24 08:45:00,75.1,74.5,28.37,SW,228,1.0,11.0,98,0.00,,,0.00,0,Wunderground v.1.15,2013-08-24 13:45:00,
2013-08-24 08:46:00,75.2,74.6,28.37,SSE,153,3.0,11.0,98,0.00,,,0.00,0,Wunderground v.1.15,2013-08-24 13:46:00,
2013-08-24 08:47:00,75.2,74.6,28.37,South,181,8.0,11.0,98,0.00,,,0.00,0,Wunderground v.1.15,2013-08-24 13:47:00,
2013-08-24 08:50:00,75.2,74.6,28.37,South,189,6.0,14.0,98,0.00,,,0.00,0,Wunderground v.1.15,2013-08-24 13:50:00,
2013-08-24 08:52:00,75.3,74.4,28.37,South,185,5.0,5.0,97,0.00,,,0.00,0,Wunderground v.1.15,2013-08-24 13:52:00,
2013-08-24 08:55:00,75.5,74.9,28.37,SW,231,3.0,7.0,98,0.00,,,0.00,0,Wunderground v.1.15,2013-08-24 13:55:00,
2013-08-24 08:57:00,75.7,74.8,28.37,SSE,167,2.0,7.0,97,0.00,,,0.00,0,Wunderground v.1.15,2013-08-24 13:57:00,
2013-08-24 09:00:00,75.9,75.0,28.37,SW,222,0.0,7.0,97,0.00,,,0.00,0,Wunderground v.1.15,2013-08-24 14:00:00,
2013-08-24 09:02:00,76.0,74.8,28.37,SSW,200,7.0,7.0,96,0.00,,,0.00,0,Wunderground v.1.15,2013-08-24 14:02:00,
2013-08-24 09:03:00,76.0,74.8,28.37,South,188,4.0,9.0,96,0.00,,,0.00,0,Wunderground v.1.15,2013-08-24 14:03:00,
2013-08-24 09:05:00,76.1,74.9,28.36,SSW,203,5.0,-999.0,96,0.00,,,0.03,,Wunderground v.1.15,2013-08-24 14:05:00,
2013-08-24 09:07:00,76.1,74.9,28.37,SSW,206,9.0,12.0,96,0.00,,,0.00,0,Wunderground v.1.15,2013-08-24 14:07:00,
2013-08-24 09:08:00,76.2,75.0,28.37,SW,215,1.0,12.0,96,0.00,,,0.00,0,Wunderground v.1.15,2013-08-24 14:08:00,
2013-08-24 09:10:00,76.3,75.1,28.37,WSW,248,2.0,-999.0,96,0.00,,,0.03,,Wunderground v.1.15,2013-08-24 14:10:00,
2013-08-24 09:12:00,76.3,74.8,28.37,South,189,3.0,6.0,95,0.00,,,0.00,0,Wunderground v.1.15,2013-08-24 14:12:00,
2013-08-24 09:13:00,76.3,74.8,28.37,SSW,209,3.0,6.0,95,0.00,,,0.00,0,Wunderground v.1.15,2013-08-24 14:13:00,
2013-08-24 09:15:00,76.5,75.0,28.37,SW,225,2.0,-999.0,95,0.00,,,0.03,,Wunderground v.1.15,2013-08-24 14:15:00,
2013-08-24 09:18:00,76.6,75.1,28.37,SW,233,0.0,7.0,95,0.00,,,0.00,0,Wunderground v.1.15,2013-08-24 14:18:00,
2013-08-24 09:20:00,76.7,75.2,28.37,SW,225,6.0,-999.0,95,0.00,,,0.03,,Wunderground v.1.15,2013-08-24 14:20:00,
2013-08-24 09:23:00,76.6,74.7,28.37,South,187,0.0,12.0,94,0.00,,,0.00,0,Wunderground v.1.15,2013-08-24 14:23:00,
2013-08-24 09:25:00,76.6,75.1,28.37,South,180,3.0,-999.0,95,0.00,,,0.03,,Wunderground v.1.15,2013-08-24 14:25:00,
2013-08-24 09:28:00,76.7,75.2,28.37,SW,223,0.0,12.0,95,0.00,,,0.00,0,Wunderground v.1.15,2013-08-24 14:28:00,
2013-08-24 09:29:00,76.7,75.2,28.37,SSW,207,0.0,12.0,95,0.00,,,0.00,0,Wunderground v.1.15,2013-08-24 14:29:00,
2013-08-24 09:30:00,76.7,74.8,28.37,South,180,2.0,-999.0,94,0.00,,,0.03,,Wunderground v.1.15,2013-08-24 14:30:00,
2013-08-24 09:33:00,76.7,74.8,28.37,SSW,212,9.0,9.0,94,0.00,,,0.00,0,Wunderground v.1.15,2013-08-24 14:33:00,
2013-08-24 09:34:00,76.7,74.8,28.37,SW,233,9.0,14.0,94,0.00,,,0.00,0,Wunderground v.1.15,2013-08-24 14:34:00,
2013-08-24 09:35:00,76.6,74.7,28.37,South,180,5.0,-999.0,94,0.00,,,0.03,,Wunderground v.1.15,2013-08-24 14:35:00,
2013-08-24 09:38:00,76.6,75.1,28.37,SW,215,0.0,14.0,95,0.00,,,0.00,0,Wunderground v.1.15,2013-08-24 14:38:00,
2013-08-24 09:40:00,76.6,75.1,28.37,South,186,0.0,14.0,95,0.00,,,0.00,0,Wunderground v.1.15,2013-08-24 14:40:00,
2013-08-24 09:44:00,76.8,74.9,28.37,SE,144,1.0,10.0,94,0.00,,,0.00,0,Wunderground v.1.15,2013-08-24 14:44:00,
2013-08-24 09:45:00,76.8,74.9,28.37,SW,220,0.0,10.0,94,0.00,,,0.00,0,Wunderground v.1.15,2013-08-24 14:45:00,
2013-08-24 09:49:00,77.0,75.1,28.37,SW,229,4.0,11.0,94,0.00,,,0.00,0,Wunderground v.1.15,2013-08-24 14:49:00,
2013-08-24 09:50:00,76.9,75.0,28.37,SSW,207,9.0,11.0,94,0.00,,,0.00,0,Wunderground v.1.15,2013-08-24 14:50:00,
2013-08-24 09:54:00,76.9,75.0,28.37,South,186,3.0,7.0,94,0.00,,,0.00,0,Wunderground v.1.15,2013-08-24 14:54:00,
2013-08-24 09:55:00,77.0,75.1,28.37,SSE,165,0.0,9.0,94,0.00,,,0.00,0,Wunderground v.1.15,2013-08-24 14:55:00,
2013-08-24 09:56:00,77.0,75.1,28.37,SW,219,5.0,9.0,94,0.00,,,0.00,0,Wunderground v.1.15,2013-08-24 14:56:00,
2013-08-24 09:59:00,77.1,75.2,28.37,SSW,200,7.0,14.0,94,0.00,,,0.00,0,Wunderground v.1.15,2013-08-24 14:59:00,
2013-08-24 10:00:00,77.1,75.2,28.37,SW,216,6.0,14.0,94,0.00,,,0.00,0,Wunderground v.1.15,2013-08-24 15:00:00,
2013-08-24 10:01:00,77.1,74.9,28.37,South,186,6.0,14.0,93,0.00,,,0.00,0,Wunderground v.1.15,2013-08-24 15:01:00,
2013-08-24 10:05:00,77.0,75.1,28.37,South,173,0.0,9.0,94,0.00,,,0.00,0,Wunderground v.1.15,2013-08-24 15:05:00,
2013-08-24 10:06:00,77.0,75.1,28.37,South,179,0.0,9.0,94,0.00,,,0.00,0,Wunderground v.1.15,2013-08-24 15:06:00,
2013-08-24 10:10:00,76.9,75.0,28.37,SSW,200,3.0,11.0,94,0.00,,,0.00,0,Wunderground v.1.15,2013-08-24 15:10:00,
2013-08-24 10:11:00,76.9,75.0,28.37,SSW,204,0.0,11.0,94,0.00,,,0.00,0,Wunderground v.1.15,2013-08-24 15:11:00,
2013-08-24 10:12:00,77.0,75.1,28.37,South,185,0.0,6.0,94,0.00,,,0.00,0,Wunderground v.1.15,2013-08-24 15:12:00,
2013-08-24 10:15:00,77.2,75.3,28.37,South,170,0.0,6.0,94,0.00,,,0.00,0,Wunderground v.1.15,2013-08-24 15:15:00,
2013-08-24 10:16:00,77.3,75.4,28.37,South,182,0.0,6.0,94,0.00,,,0.00,0,Wunderground v.1.15,2013-08-24 15:16:00,
2013-08-24 10:17:00,77.4,75.5,28.37,SW,224,7.0,7.0,94,0.00,,,0.00,0,Wunderground v.1.15,2013-08-24 15:17:00,
2013-08-24 10:20:00,77.5,75.3,28.37,SW,221,8.0,8.0,93,0.00,,,0.00,0,Wunderground v.1.15,2013-08-24 15:20:00,
2013-08-24 10:21:00,77.5,75.3,28.37,SW,233,2.0,8.0,93,0.00,,,0.00,0,Wunderground v.1.15,2013-08-24 15:21:00,
2013-08-24 10:23:00,77.7,75.5,28.37,South,189,6.0,9.0,93,0.00,,,0.00,0,Wunderground v.1.15,2013-08-24 15:23:00,
2013-08-24 10:25:00,77.8,75.6,28.37,South,181,0.0,9.0,93,0.00,,,0.00,0,Wunderground v.1.15,2013-08-24 15:25:00,
2013-08-24 10:26:00,77.8,75.6,28.37,SSE,167,4.0,9.0,93,0.00,,,0.00,0,Wunderground v.1.15,2013-08-24 15:26:00,
2013-08-24 10:27:00,77.9,75.7,28.37,SW,222,2.0,9.0,93,0.00,,,0.00,0,Wunderground v.1.15,2013-08-24 15:27:00,
2013-08-24 10:28:00,78.0,75.5,28.37,South,182,0.0,9.0,92,0.00,,,0.00,0,Wunderground v.1.15,2013-08-24 15:28:00,
2013-08-24 10:30:00,78.0,75.5,28.36,South,180,2.0,-999.0,92,0.00,,,0.03,,Wunderground v.1.15,2013-08-24 15:30:00,
2013-08-24 10:31:00,78.0,75.5,28.37,South,178,0.0,12.0,92,0.00,,,0.00,0,Wunderground v.1.15,2013-08-24 15:31:00,
2013-08-24 10:32:00,78.0,75.5,28.37,SSW,194,0.0,12.0,92,0.00,,,0.00,0,Wunderground v.1.15,2013-08-24 15:32:00,
2013-08-24 10:33:00,78.0,75.5,28.37,SSW,200,4.0,12.0,92,0.00,,,0.00,0,Wunderground v.1.15,2013-08-24 15:33:00,
2013-08-24 10:35:00,78.1,75.6,28.36,SW,225,1.0,-999.0,92,0.00,,,0.03,,Wunderground v.1.15,2013-08-24 15:35:00,
2013-08-24 10:36:00,78.1,75.9,28.37,SW,229,3.0,12.0,93,0.00,,,0.00,0,Wunderground v.1.15,2013-08-24 15:36:00,
2013-08-24 10:37:00,78.1,75.6,28.37,SW,216,0.0,12.0,92,0.00,,,0.00,0,Wunderground v.1.15,2013-08-24 15:37:00,
2013-08-24 10:38:00,78.2,75.7,28.37,SSW,210,0.0,12.0,92,0.00,,,0.00,0,Wunderground v.1.15,2013-08-24 15:38:00,
2013-08-24 10:40:00,78.3,75.8,28.36,SW,225,1.0,-999.0,92,0.00,,,0.03,,Wunderground v.1.15,2013-08-24 15:40:00,
2013-08-24 10:41:00,78.3,75.8,28.37,SW,216,0.0,0.0,92,0.00,,,0.00,0,Wunderground v.1.15,2013-08-24 15:41:00,
2013-08-24 10:42:00,78.3,75.8,28.37,SSW,197,0.0,3.0,92,0.00,,,0.00,0,Wunderground v.1.15,2013-08-24 15:42:00,
2013-08-24 10:43:00,78.4,75.9,28.37,SW,223,0.0,3.0,92,0.00,,,0.00,0,Wunderground v.1.15,2013-08-24 15:43:00,
2013-08-24 10:45:00,78.7,76.2,28.36,South,180,1.0,-999.0,92,0.00,,,0.03,,Wunderground v.1.15,2013-08-24 15:45:00,
2013-08-24 10:46:00,78.7,76.2,28.36,South,180,0.0,6.0,92,0.00,,,0.00,0,Wunderground v.1.15,2013-08-24 15:46:00,
2013-08-24 10:47:00,78.8,76.3,28.37,SSW,207,0.0,6.0,92,0.00,,,0.00,0,Wunderground v.1.15,2013-08-24 15:47:00,
2013-08-24 10:49:00,78.9,76.0,28.37,SSW,206,0.0,8.0,91,0.00,,,0.00,0,Wunderground v.1.15,2013-08-24 15:49:00,
2013-08-24 10:50:00,79.0,76.1,28.36,SSW,203,1.0,-999.0,91,0.00,,,0.03,,Wunderground v.1.15,2013-08-24 15:50:00,
2013-08-24 10:52:00,79.0,76.1,28.36,SSW,213,0.0,3.0,91,0.00,,,0.00,0,Wunderground v.1.15,2013-08-24 15:52:00,
2013-08-24 10:54:00,79.2,76.0,28.36,SSW,199,0.0,9.0,90,0.00,,,0.00,0,Wunderground v.1.15,2013-08-24 15:54:00,
2013-08-24 10:55:00,79.4,76.2,28.36,South,180,3.0,-999.0,90,0.00,,,0.03,,Wunderground v.1.15,2013-08-24 15:55:00,
2013-08-24 10:57:00,79.4,76.2,28.36,South,187,6.0,9.0,90,0.00,,,0.00,0,Wunderground v.1.15,2013-08-24 15:57:00,
2013-08-24 10:58:00,79.5,76.3,28.36,SSW,207,0.0,9.0,90,0.00,,,0.00,0,Wunderground v.1.15,2013-08-24 15:58:00,
2013-08-24 10:59:00,79.5,76.3,28.36,SSW,197,0.0,9.0,90,0.00,,,0.00,0,Wunderground v.1.15,2013-08-24 15:59:00,
2013-08-24 11:00:00,79.6,76.4,28.36,South,180,0.0,-999.0,90,0.00,,,0.03,,Wunderground v.1.15,2013-08-24 16:00:00,
2013-08-24 11:02:00,79.7,76.5,28.36,SW,228,9.0,12.0,90,0.00,,,0.00,0,Wunderground v.1.15,2013-08-24 16:02:00,
2013-08-24 11:03:00,79.7,76.2,28.36,SSW,205,0.0,12.0,89,0.00,,,0.00,0,Wunderground v.1.15,2013-08-24 16:03:00,
2013-08-24 11:05:00,79.6,76.1,28.36,SSW,210,0.0,12.0,89,0.00,,,0.00,0,Wunderground v.1.15,2013-08-24 16:05:00,
2013-08-24 11:08:00,79.5,76.3,28.36,SSW,207,0.0,12.0,90,0.00,,,0.00,0,Wunderground v.1.15,2013-08-24 16:08:00,
2013-08-24 11:10:00,79.6,76.1,28.36,SSW,204,2.0,12.0,89,0.00,,,0.00,0,Wunderground v.1.15,2013-08-24 16:10:00,
2013-08-24 11:13:00,79.8,76.6,28.35,SW,221,0.0,1.0,90,0.00,,,0.00,0,Wunderground v.1.15,2013-08-24 16:13:00,
2013-08-24 11:14:00,79.8,76.6,28.35,South,171,0.0,1.0,90,0.00,,,0.00,0,Wunderground v.1.15,2013-08-24 16:14:00,
2013-08-24 11:15:00,80.1,76.9,28.35,South,176,0.0,3.0,90,0.00,,,0.00,0,Wunderground v.1.15,2013-08-24 16:15:00,
2013-08-24 11:18:00,80.2,76.3,28.35,SSW,195,0.0,11.0,88,0.00,,,0.00,0,Wunderground v.1.15,2013-08-24 16:18:00,
2013-08-24 11:19:00,80.3,76.8,28.35,SSW,205,0.0,11.0,89,0.00,,,0.00,0,Wunderground v.1.15,2013-08-24 16:19:00,
2013-08-24 11:20:00,80.4,76.9,28.35,South,189,7.0,11.0,89,0.00,,,0.00,0,Wunderground v.1.15,2013-08-24 16:20:00,
2013-08-24 11:23:00,80.7,76.8,28.36,SSW,202,0.0,12.0,88,0.00,,,0.00,0,Wunderground v.1.15,2013-08-24 16:23:00,
2013-08-24 11:24:00,80.6,76.7,28.35,SSW,192,12.0,12.0,88,0.00,,,0.00,0,Wunderground v.1.15,2013-08-24 16:24:00,
2013-08-24 11:25:00,80.7,76.8,28.35,South,181,14.0,14.0,88,0.00,,,0.00,0,Wunderground v.1.15,2013-08-24 16:25:00,
2013-08-24 11:28:00,80.8,76.9,28.35,SSW,200,0.0,14.0,88,0.00,,,0.00,0,Wunderground v.1.15,2013-08-24 16:28:00,
2013-08-24 11:29:00,80.8,76.6,28.35,WSW,240,0.0,14.0,87,0.00,,,0.00,0,Wunderground v.1.15,2013-08-24 16:29:00,
2013-08-24 11:30:00,80.9,77.0,28.35,SSE,163,4.0,14.0,88,0.00,,,0.00,0,Wunderground v.1.15,2013-08-24 16:30:00,
2013-08-24 11:34:00,81.0,76.8,28.35,SSE,161,6.0,11.0,87,0.00,,,0.00,0,Wunderground v.1.15,2013-08-24 16:34:00,
2013-08-24 11:35:00,81.0,76.8,28.35,South,191,1.0,11.0,87,0.00,,,0.00,0,Wunderground v.1.15,2013-08-24 16:35:00,
2013-08-24 11:36:00,81.0,76.8,28.35,SW,226,0.0,11.0,87,0.00,,,0.00,0,Wunderground v.1.15,2013-08-24 16:36:00,
2013-08-24 11:39:00,81.2,77.0,28.35,SW,219,4.0,11.0,87,0.00,,,0.00,0,Wunderground v.1.15,2013-08-24 16:39:00,
2013-08-24 11:40:00,81.2,77.0,28.35,SSW,202,0.0,11.0,87,0.00,,,0.00,0,Wunderground v.1.15,2013-08-24 16:40:00,
2013-08-24 11:41:00,81.2,77.0,28.35,SSW,206,0.0,0.0,87,0.00,,,0.00,0,Wunderground v.1.15,2013-08-24 16:41:00,
2013-08-24 11:44:00,81.5,77.3,28.35,South,189,0.0,9.0,87,0.00,,,0.00,0,Wunderground v.1.15,2013-08-24 16:44:00,
2013-08-24 11:45:00,81.6,77.4,28.34,South,188,4.0,10.0,87,0.00,,,0.00,0,Wunderground v.1.15,2013-08-24 16:45:00,
2013-08-24 11:47:00,81.8,77.5,28.34,SW,220,0.0,10.0,87,0.00,,,0.00,0,Wunderground v.1.15,2013-08-24 16:47:00,
2013-08-24 11:49:00,82.1,77.5,28.34,SW,218,5.0,10.0,86,0.00,,,0.00,0,Wunderground v.1.15,2013-08-24 16:49:00,
2013-08-24 11:50:00,82.2,77.2,28.34,SW,231,3.0,10.0,85,0.00,,,0.00,0,Wunderground v.1.15,2013-08-24 16:50:00,
2013-08-24 11:52:00,82.3,77.3,28.34,SSW,195,0.0,7.0,85,0.00,,,0.00,0,Wunderground v.1.15,2013-08-24 16:52:00,
2013-08-24 11:54:00,82.3,77.3,28.34,SSW,202,0.0,10.0,85,0.00,,,0.00,0,Wunderground v.1.15,2013-08-24 16:54:00,
2013-08-24 11:55:00,82.2,77.2,28.34,SW,226,0.0,10.0,85,0.00,,,0.00,0,Wunderground v.1.15,2013-08-24 16:55:00,
2013-08-24 11:56:00,82.2,77.2,28.34,SW,214,0.0,10.0,85,0.00,,,0.00,0,Wunderground v.1.15,2013-08-24 16:56:00,
2013-08-24 11:58:00,82.4,77.4,28.34,South,175,9.0,17.0,85,0.00,,,0.00,0,Wunderground v.1.15,2013-08-24 16:58:00,
2013-08-24 12:00:00,82.4,77.4,28.34,SSW,197,0.0,17.0,85,0.00,,,0.00,0,Wunderground v.1.15,2013-08-24 17:00:00,
2013-08-24 12:01:00,82.4,77.4,28.34,SSW,207,4.0,17.0,85,0.00,,,0.00,0,Wunderground v.1.15,2013-08-24 17:01:00,
2013-08-24 12:03:00,82.4,77.1,28.34,SW,214,5.0,7.0,84,0.00,,,0.00,0,Wunderground v.1.15,2013-08-24 17:03:00,
2013-08-24 12:05:00,82.4,77.1,28.34,SSE,164,4.0,7.0,84,0.00,,,0.00,0,Wunderground v.1.15,2013-08-24 17:05:00,
2013-08-24 12:06:00,82.3,77.0,28.34,SE,134,0.0,7.0,84,0.00,,,0.00,0,Wunderground v.1.15,2013-08-24 17:06:00,
2013-08-24 12:08:00,82.1,77.1,28.34,SSW,207,4.0,9.0,85,0.00,,,0.00,0,Wunderground v.1.15,2013-08-24 17:08:00,
2013-08-24 12:10:00,82.0,77.0,28.34,SSW,195,0.0,9.0,85,0.00,,,0.00,0,Wunderground v.1.15,2013-08-24 17:10:00,
2013-08-24 12:11:00,82.0,77.0,28.34,SSE,152,0.0,4.0,85,0.00,,,0.00,0,Wunderground v.1.15,2013-08-24 17:11:00,
2013-08-24 12:12:00,82.0,77.0,28.34,South,181,0.0,5.0,85,0.00,,,0.00,0,Wunderground v.1.15,2013-08-24 17:12:00,
2013-08-24 12:14:00,82.0,77.0,28.34,SSW,194,0.0,5.0,85,0.00,,,0.00,0,Wunderground v.1.15,2013-08-24 17:14:00,
2013-08-24 12:15:00,82.0,77.0,28.34,SW,232,10.0,10.0,85,0.00,,,0.00,0,Wunderground v.1.15,2013-08-24 17:15:00,
2013-08-24 12:17:00,81.9,76.9,28.34,South,189,0.0,10.0,85,0.00,,,0.00,0,Wunderground v.1.15,2013-08-24 17:17:00,
2013-08-24 12:19:00,81.8,76.8,28.34,SE,143,0.0,11.0,85,0.00,,,0.00,0,Wunderground v.1.15,2013-08-24 17:19:00,
2013-08-24 12:20:00,81.7,77.1,28.34,South,180,1.0,-999.0,86,0.00,,,0.03,,Wunderground v.1.15,2013-08-24 17:20:00,
2013-08-24 12:21:00,81.7,77.1,28.34,SSW,213,0.0,11.0,86,0.00,,,0.00,0,Wunderground v.1.15,2013-08-24 17:21:00,
2013-08-24 12:22:00,81.7,77.1,28.34,South,178,8.0,8.0,86,0.00,,,0.00,0,Wunderground v.1.15,2013-08-24 17:22:00,
2013-08-24 12:24:00,81.9,77.3,28.33,South,181,2.0,13.0,86,0.00,,,0.00,0,Wunderground v.1.15,2013-08-24 17:24:00,
2013-08-24 12:25:00,82.1,77.1,28.33,SSE,158,1.0,-999.0,85,0.00,,,0.03,,Wunderground v.1.15,2013-08-24 17:25:00,
2013-08-24 12:26:00,82.1,77.5,28.33,SW,226,0.0,13.0,86,0.00,,,0.00,0,Wunderground v.1.15,2013-08-24 17:26:00,
2013-08-24 12:27:00,82.3,77.3,28.33,SSW,199,1.0,13.0,85,0.00,,,0.00,0,Wunderground v.1.15,2013-08-24 17:27:00,
2013-08-24 12:29:00,82.4,77.1,28.33,South,171,2.0,13.0,84,0.00,,,0.00,0,Wunderground v.1.15,2013-08-24 17:29:00,
2013-08-24 12:30:00,82.6,77.3,28.33,SSW,203,9.0,-999.0,84,0.00,,,0.03,,Wunderground v.1.15,2013-08-24 17:30:00,
2013-08-24 12:31:00,82.6,77.3,28.33,South,179,8.0,12.0,84,0.00,,,0.00,0,Wunderground v.1.15,2013-08-24 17:31:00,
2013-08-24 12:32:00,82.6,77.3,28.33,SSW,204,10.0,12.0,84,0.00,,,0.00,0,Wunderground v.1.15,2013-08-24 17:32:00,
2013-08-24 12:34:00,82.5,77.2,28.33,SSW,200,3.0,12.0,84,0.00,,,0.00,0,Wunderground v.1.15,2013-08-24 17:34:00,
2013-08-24 12:35:00,82.4,77.1,28.33,SSW,203,5.0,-999.0,84,0.00,,,0.03,,Wunderground v.1.15,2013-08-24 17:35:00,
2013-08-24 12:37:00,82.4,77.1,28.33,SSE,165,1.0,12.0,84,0.00,,,0.00,0,Wunderground v.1.15,2013-08-24 17:37:00,
2013-08-24 12:38:00,82.5,77.5,28.33,SSW,202,10.0,12.0,85,0.00,,,0.00,0,Wunderground v.1.15,2013-08-24 17:38:00,
2013-08-24 12:40:00,82.6,77.6,28.33,SSE,152,0.0,12.0,85,0.00,,,0.00,0,Wunderground v.1.15,2013-08-24 17:40:00,
2013-08-24 12:42:00,82.8,77.5,28.33,SW,231,7.0,7.0,84,0.00,,,0.00,0,Wunderground v.1.15,2013-08-24 17:42:00,
2013-08-24 12:43:00,82.9,77.6,28.33,South,191,3.0,9.0,84,0.00,,,0.00,0,Wunderground v.1.15,2013-08-24 17:43:00,
2013-08-24 12:45:00,83.1,77.8,28.33,SSW,210,1.0,14.0,84,0.00,,,0.00,0,Wunderground v.1.15,2013-08-24 17:45:00,
2013-08-24 12:47:00,83.3,77.6,28.33,WSW,237,5.0,14.0,83,0.00,,,0.00,0,Wunderground v.1.15,2013-08-24 17:47:00,
2013-08-24 12:48:00,83.3,77.6,28.33,SW,229,7.0,14.0,83,0.00,,,0.00,0,Wunderground v.1.15,2013-08-24 17:48:00,
2013-08-24 12:50:00,83.3,77.6,28.33,SSW,198,8.0,14.0,83,0.00,,,0.00,0,Wunderground v.1.15,2013-08-24 17:50:00,
2013-08-24 12:52:00,83.3,77.6,28.33,SSE,155,0.0,6.0,83,0.00,,,0.00,0,Wunderground v.1.15,2013-08-24 17:52:00,
2013-08-24 12:53:00,83.4,77.7,28.33,South,183,4.0,6.0,83,0.00,,,0.00,0,Wunderground v.1.15,2013-08-24 17:53:00,
2013-08-24 12:55:00,83.6,77.5,28.33,SW,218,4.0,9.0,82,0.00,,,0.00,0,Wunderground v.1.15,2013-08-24 17:55:00,
2013-08-24 12:57:00,83.7,77.6,28.33,SSW,209,0.0,9.0,82,0.00,,,0.00,0,Wunderground v.1.15,2013-08-24 17:57:00,
2013-08-24 12:58:00,83.8,77.7,28.32,SSW,196,1.0,12.0,82,0.00,,,0.00,0,Wunderground v.1.15,2013-08-24 17:58:00,
2013-08-24 13:00:00,84.0,77.9,28.32,SW,233,1.0,12.0,82,0.00,,,0.00,0,Wunderground v.1.15,2013-08-24 18:00:00,
2013-08-24 13:02:00,84.3,78.2,28.32,SW,224,5.0,7.0,82,0.00,,,0.00,0,Wunderground v.1.15,2013-08-24 18:02:00,
2013-08-24 13:03:00,84.4,78.3,28.32,SSW,192,7.0,9.0,82,0.00,,,0.00,0,Wunderground v.1.15,2013-08-24 18:03:00,
2013-08-24 13:04:00,84.4,77.9,28.32,South,191,5.0,9.0,81,0.00,,,0.00,0,Wunderground v.1.15,2013-08-24 18:04:00,
2013-08-24 13:05:00,84.6,78.1,28.32,N/A,-737280,0.0,-999.0,81,0.00,,,0.03,,Wunderground v.1.15,2013-08-24 18:05:00,
2013-08-24 13:06:00,84.6,78.1,28.32,SSW,205,0.0,9.0,81,0.00,,,0.00,0,Wunderground v.1.15,2013-08-24 18:06:00,
2013-08-24 13:07:00,84.8,78.3,28.32,South,187,0.0,9.0,81,0.00,,,0.00,0,Wunderground v.1.15,2013-08-24 18:07:00,
2013-08-24 13:08:00,85.0,78.5,28.32,SSW,195,0.0,9.0,81,0.00,,,0.00,0,Wunderground v.1.15,2013-08-24 18:08:00,
2013-08-24 13:09:00,85.0,78.5,28.32,SSW,203,0.0,9.0,81,0.00,,,0.00,0,Wunderground v.1.15,2013-08-24 18:09:00,
2013-08-24 13:10:00,85.5,78.6,28.32,SSW,203,1.0,-999.0,80,0.00,,,0.03,,Wunderground v.1.15,2013-08-24 18:10:00,
2013-08-24 13:11:00,85.5,78.6,28.32,SSW,212,0.0,0.0,80,0.00,,,0.00,0,Wunderground v.1.15,2013-08-24 18:11:00,
2013-08-24 13:13:00,85.7,78.8,28.32,South,188,3.0,6.0,80,0.00,,,0.00,0,Wunderground v.1.15,2013-08-24 18:13:00,
2013-08-24 13:14:00,85.8,78.5,28.32,SSE,165,5.0,7.0,79,0.00,,,0.00,0,Wunderground v.1.15,2013-08-24 18:14:00,
2013-08-24 13:15:00,86.0,78.3,28.32,SSW,203,6.0,-999.0,78,0.00,,,0.03,,Wunderground v.1.15,2013-08-24 18:15:00,
2013-08-24 13:17:00,85.9,78.6,28.32,South,170,4.0,15.0,79,0.00,,,0.00,0,Wunderground v.1.15,2013-08-24 18:17:00,
2013-08-24 13:18:00,85.9,78.2,28.32,SW,223,9.0,15.0,78,0.00,,,0.00,0,Wunderground v.1.15,2013-08-24 18:18:00,
2013-08-24 13:19:00,85.8,78.5,28.32,SSW,210,3.0,15.0,79,0.00,,,0.00,0,Wunderground v.1.15,2013-08-24 18:19:00,
2013-08-24 13:20:00,86.0,78.7,28.31,South,180,1.0,-999.0,79,0.00,,,0.03,,Wunderground v.1.15,2013-08-24 18:20:00,
2013-08-24 13:23:00,86.3,78.6,28.32,SSW,196,0.0,6.0,78,0.00,,,0.00,0,Wunderground v.1.15,2013-08-24 18:23:00,
2013-08-24 13:24:00,86.4,78.7,28.32,SSW,200,0.0,6.0,78,0.00,,,0.00,0,Wunderground v.1.15,2013-08-24 18:24:00,
2013-08-24 13:25:00,86.6,78.9,28.32,SW,225,4.0,-999.0,78,0.00,,,0.03,,Wunderground v.1.15,2013-08-24 18:25:00,
2013-08-24 13:28:00,86.4,78.7,28.32,SW,224,0.0,9.0,78,0.00,,,0.00,0,Wunderground v.1.15,2013-08-24 18:28:00,
2013-08-24 13:29:00,86.4,78.7,28.32,South,186,0.0,12.0,78,0.00,,,0.00,0,Wunderground v.1.15,2013-08-24 18:29:00,
2013-08-24 13:30:00,86.4,78.7,28.32,South,191,0.0,12.0,78,0.00,,,0.00,0,Wunderground v.1.15,2013-08-24 18:30:00,
2013-08-24 13:33:00,86.7,78.6,28.32,SW,217,9.0,13.0,77,0.00,,,0.00,0,Wunderground v.1.15,2013-08-24 18:33:00,
2013-08-24 13:34:00,86.7,79.0,28.32,SSW,211,1.0,13.0,78,0.00,,,0.00,0,Wunderground v.1.15,2013-08-24 18:34:00,
2013-08-24 13:35:00,86.7,79.0,28.32,SW,219,0.0,13.0,78,0.00,,,0.00,0,Wunderground v.1.15,2013-08-24 18:35:00,
2013-08-24 13:38:00,87.0,79.3,28.32,SW,231,0.0,13.0,78,0.00,,,0.00,0,Wunderground v.1.15,2013-08-24 18:38:00,
2013-08-24 13:39:00,87.0,78.9,28.32,SSW,206,0.0,13.0,77,0.00,,,0.00,0,Wunderground v.1.15,2013-08-24 18:39:00,
2013-08-24 13:40:00,87.0,78.9,28.32,SSW,209,6.0,13.0,77,0.00,,,0.00,0,Wunderground v.1.15,2013-08-24 18:40:00,
2013-08-24 13:43:00,86.9,78.8,28.32,SSW,193,0.0,6.0,77,0.00,,,0.00,0,Wunderground v.1.15,2013-08-24 18:43:00,
2013-08-24 13:44:00,87.0,79.3,28.32,South,184,0.0,6.0,78,0.00,,,0.00,0,Wunderground v.1.15,2013-08-24 18:44:00,
2013-08-24 13:45:00,87.2,79.5,28.32,South,184,0.0,6.0,78,0.00,,,0.00,0,Wunderground v.1.15,2013-08-24 18:45:00,
2013-08-24 13:46:00,87.3,79.6,28.32,South,185,0.0,6.0,78,0.00,,,0.00,0,Wunderground v.1.15,2013-08-24 18:46:00,
2013-08-24 13:49:00,87.8,79.3,28.32,SSW,207,7.0,12.0,76,0.00,,,0.00,0,Wunderground v.1.15,2013-08-24 18:49:00,
2013-08-24 13:50:00,87.8,79.3,28.32,SSW,205,5.0,12.0,76,0.00,,,0.00,0,Wunderground v.1.15,2013-08-24 18:50:00,
2013-08-24 13:51:00,87.8,79.3,28.32,SSW,205,3.0,12.0,76,0.00,,,0.00,0,Wunderground v.1.15,2013-08-24 18:51:00,
2013-08-24 13:55:00,87.7,79.2,28.32,South,181,4.0,9.0,76,0.00,,,0.00,0,Wunderground v.1.15,2013-08-24 18:55:00,
2013-08-24 13:56:00,87.5,79.0,28.32,SSW,211,7.0,9.0,76,0.00,,,0.00,0,Wunderground v.1.15,2013-08-24 18:56:00,
2013-08-24 14:00:00,87.3,78.8,28.32,SW,221,0.0,14.0,76,0.00,,,0.00,0,Wunderground v.1.15,2013-08-24 19:00:00,
2013-08-24 14:01:00,87.5,79.4,28.32,South,184,0.0,0.0,77,0.00,,,0.00,0,Wunderground v.1.15,2013-08-24 19:01:00,
2013-08-24 14:05:00,87.7,79.2,28.32,SW,216,9.0,15.0,76,0.00,,,0.00,0,Wunderground v.1.15,2013-08-24 19:05:00,
2013-08-24 14:06:00,87.7,79.2,28.32,SSW,207,0.0,15.0,76,0.00,,,0.00,0,Wunderground v.1.15,2013-08-24 19:06:00,
2013-08-24 14:08:00,88.0,79.5,28.32,WSW,249,0.0,15.0,76,0.00,,,0.00,0,Wunderground v.1.15,2013-08-24 19:08:00,
2013-08-24 14:10:00,88.4,79.5,28.32,SSW,193,3.0,15.0,75,0.00,,,0.00,0,Wunderground v.1.15,2013-08-24 19:10:00,
2013-08-24 14:11:00,88.4,79.5,28.32,SW,235,0.0,15.0,75,0.00,,,0.00,0,Wunderground v.1.15,2013-08-24 19:11:00,
2013-08-24 14:13:00,88.4,79.1,28.32,SW,217,5.0,10.0,74,0.00,,,0.00,0,Wunderground v.1.15,2013-08-24 19:13:00,
2013-08-24 14:15:00,88.3,79.0,28.32,SW,234,0.0,12.0,74,0.00,,,0.00,0,Wunderground v.1.15,2013-08-24 19:15:00,
2013-08-24 14:16:00,88.2,79.3,28.32,SSW,208,0.0,12.0,75,0.00,,,0.00,0,Wunderground v.1.15,2013-08-24 19:16:00,
2013-08-24 14:17:00,88.2,79.3,28.32,SW,225,0.0,12.0,75,0.00,,,0.00,0,Wunderground v.1.15,2013-08-24 19:17:00,
2013-08-24 14:18:00,88.4,79.5,28.32,WSW,253,0.0,12.0,75,0.00,,,0.00,0,Wunderground v.1.15,2013-08-24 19:18:00,
2013-08-24 14:20:00,88.6,79.2,28.32,SSW,198,4.0,12.0,74,0.00,,,0.00,0,Wunderground v.1.15,2013-08-24 19:20:00,
2013-08-24 14:21:00,88.6,79.2,28.32,SW,214,0.0,12.0,74,0.00,,,0.00,0,Wunderground v.1.15,2013-08-24 19:21:00,
2013-08-24 14:22:00,88.7,78.9,28.32,South,181,9.0,11.0,73,0.00,,,0.00,0,Wunderground v.1.15,2013-08-24 19:22:00,
2013-08-24 14:24:00,88.6,78.8,28.32,WSW,241,5.0,11.0,73,0.00,,,0.00,0,Wunderground v.1.15,2013-08-24 19:24:00,
2013-08-24 14:25:00,88.4,79.1,28.32,SSW,207,5.0,11.0,74,0.00,,,0.00,0,Wunderground v.1.15,2013-08-24 19:25:00,
2013-08-24 14:26:00,88.4,79.1,28.32,SSW,212,5.0,11.0,74,0.00,,,0.00,0,Wunderground v.1.15,2013-08-24 19:26:00,
2013-08-24 14:27:00,88.4,79.1,28.32,SW,215,0.0,11.0,74,0.00,,,0.00,0,Wunderground v.1.15,2013-08-24 19:27:00,
2013-08-24 14:29:00,88.3,79.0,28.32,SSW,212,4.0,11.0,74,0.00,,,0.00,0,Wunderground v.1.15,2013-08-24 19:29:00,
2013-08-24 14:30:00,88.2,78.9,28.32,SSW,202,3.0,11.0,74,0.00,,,0.00,0,Wunderground v.1.15,2013-08-24 19:30:00,
2013-08-24 14:31:00,88.2,78.9,28.31,SSW,207,0.0,11.0,74,0.00,,,0.00,0,Wunderground v.1.15,2013-08-24 19:31:00,
2013-08-24 14:32:00,88.1,78.8,28.31,WSW,237,0.0,12.0,74,0.00,,,0.00,0,Wunderground v.1.15,2013-08-24 19:32:00,
2013-08-24 14:35:00,87.9,78.6,28.32,SSW,204,7.0,15.0,74,0.00,,,0.00,0,Wunderground v.1.15,2013-08-24 19:35:00,
2013-08-24 14:36:00,87.7,78.8,28.32,South,181,3.0,15.0,75,0.00,,,0.00,0,Wunderground v.1.15,2013-08-24 19:36:00,
2013-08-24 14:37:00,87.5,78.6,28.31,SSW,208,0.0,15.0,75,0.00,,,0.00,0,Wunderground v.1.15,2013-08-24 19:37:00,
2013-08-24 14:40:00,87.5,79.0,28.32,SSW,204,2.0,15.0,76,0.00,,,0.00,0,Wunderground v.1.15,2013-08-24 19:40:00,
2013-08-24 14:41:00,87.4,78.9,28.31,SSE,154,7.0,7.0,76,0.00,,,0.00,0,Wunderground v.1.15,2013-08-24 19:41:00,
2013-08-24 14:42:00,87.4,78.9,28.31,SW,226,1.0,10.0,76,0.00,,,0.00,0,Wunderground v.1.15,2013-08-24 19:42:00,
2013-08-24 14:43:00,87.3,78.8,28.31,SW,227,0.0,10.0,76,0.00,,,0.00,0,Wunderground v.1.15,2013-08-24 19:43:00,
2013-08-24 14:45:00,87.3,78.8,28.31,SW,221,5.0,11.0,76,0.00,,,0.00,0,Wunderground v.1.15,2013-08-24 19:45:00,
2013-08-24 14:46:00,87.2,78.7,28.31,SSW,194,0.0,11.0,76,0.00,,,0.00,0,Wunderground v.1.15,2013-08-24 19:46:00,
2013-08-24 14:47:00,87.2,79.1,28.31,WSW,238,5.0,11.0,77,0.00,,,0.00,0,Wunderground v.1.15,2013-08-24 19:47:00,
2013-08-24 14:49:00,87.2,78.7,28.31,SW,230,0.0,11.0,76,0.00,,,0.00,0,Wunderground v.1.15,2013-08-24 19:49:00,
2013-08-24 14:50:00,87.1,78.6,28.31,SSW,203,2.0,-999.0,76,0.00,,,0.03,,Wunderground v.1.15,2013-08-24 19:50:00,
2013-08-24 14:51:00,87.1,78.6,28.31,SW,227,3.0,11.0,76,0.00,,,0.00,0,Wunderground v.1.15,2013-08-24 19:51:00,
2013-08-24 14:52:00,87.1,78.6,28.31,South,189,1.0,3.0,76,0.00,,,0.00,0,Wunderground v.1.15,2013-08-24 19:52:00,
2013-08-24 14:53:00,87.1,78.6,28.31,SW,228,4.0,4.0,76,0.00,,,0.00,0,Wunderground v.1.15,2013-08-24 19:53:00,
2013-08-24 14:54:00,87.1,78.6,28.31,SW,216,1.0,8.0,76,0.00,,,0.00,0,Wunderground v.1.15,2013-08-24 19:54:00,
2013-08-24 14:55:00,87.0,78.5,28.30,SSE,158,1.0,-999.0,76,0.00,,,0.03,,Wunderground v.1.15,2013-08-24 19:55:00,
2013-08-24 14:56:00,86.9,78.4,28.31,South,176,8.0,10.0,76,0.00,,,0.00,0,Wunderground v.1.15,2013-08-24 19:56:00,
2013-08-24 14:57:00,86.9,78.4,28.31,South,175,6.0,10.0,76,0.00,,,0.00,0,Wunderground v.1.15,2013-08-24 19:57:00,
2013-08-24 14:58:00,86.8,78.3,28.31,SSW,202,4.0,10.0,76,0.00,,,0.00,0,Wunderground v.1.15,2013-08-24 19:58:00,
2013-08-24 14:59:00,86.7,78.2,28.30,SW,223,5.0,12.0,76,0.00,,,0.00,0,Wunderground v.1.15,2013-08-24 19:59:00,
2013-08-24 15:00:00,86.6,78.5,28.30,South,180,1.0,-999.0,77,0.00,,,0.03,,Wunderground v.1.15,2013-08-24 20:00:00,
2013-08-24 15:01:00,86.6,78.5,28.30,South,172,1.0,6.0,77,0.00,,,0.00,0,Wunderground v.1.15,2013-08-24 20:01:00,
2013-08-24 15:02:00,86.6,78.5,28.30,SW,218,0.0,6.0,77,0.00,,,0.00,0,Wunderground v.1.15,2013-08-24 20:02:00,
2013-08-24 15:03:00,86.6,78.5,28.30,SW,218,0.0,8.0,77,0.00,,,0.00,0,Wunderground v.1.15,2013-08-24 20:03:00,
2013-08-24 15:04:00,86.6,78.5,28.30,SSW,206,0.0,8.0,77,0.00,,,0.00,0,Wunderground v.1.15,2013-08-24 20:04:00,
2013-08-24 15:05:00,86.5,78.4,28.30,SSE,158,1.0,-999.0,77,0.00,,,0.03,,Wunderground v.1.15,2013-08-24 20:05:00,
2013-08-24 15:07:00,86.5,78.4,28.30,SSW,199,4.0,10.0,77,0.00,,,0.00,0,Wunderground v.1.15,2013-08-24 20:07:00,
2013-08-24 15:08:00,86.5,78.4,28.30,South,175,0.0,10.0,77,0.00,,,0.00,0,Wunderground v.1.15,2013-08-24 20:08:00,
2013-08-24 15:09:00,86.5,78.4,28.30,South,177,0.0,10.0,77,0.00,,,0.00,0,Wunderground v.1.15,2013-08-24 20:09:00,
2013-08-24 15:10:00,86.5,78.8,28.30,SW,224,1.0,11.0,78,0.00,,,0.00,0,Wunderground v.1.15,2013-08-24 20:10:00,
2013-08-24 15:12:00,86.5,78.8,28.30,South,190,3.0,3.0,78,0.00,,,0.00,0,Wunderground v.1.15,2013-08-24 20:12:00,
2013-08-24 15:13:00,86.6,78.9,28.30,South,189,0.0,5.0,78,0.00,,,0.00,0,Wunderground v.1.15,2013-08-24 20:13:00,
2013-08-24 15:14:00,86.6,78.9,28.30,South,179,0.0,5.0,78,0.00,,,0.00,0,Wunderground v.1.15,2013-08-24 20:14:00,
2013-08-24 15:15:00,86.7,78.6,28.30,South,188,7.0,8.0,77,0.00,,,0.00,0,Wunderground v.1.15,2013-08-24 20:15:00,
2013-08-24 15:17:00,86.7,78.6,28.30,WSW,240,8.0,13.0,77,0.00,,,0.00,0,Wunderground v.1.15,2013-08-24 20:17:00,
2013-08-24 15:18:00,86.6,78.5,28.30,South,175,6.0,13.0,77,0.00,,,0.00,0,Wunderground v.1.15,2013-08-24 20:18:00,
2013-08-24 15:19:00,86.6,78.5,28.30,SW,215,0.0,13.0,77,0.00,,,0.00,0,Wunderground v.1.15,2013-08-24 20:19:00,
2013-08-24 15:20:00,86.6,78.5,28.30,SSW,203,3.0,-999.0,77,0.00,,,0.03,,Wunderground v.1.15,2013-08-24 20:20:00,
2013-08-24 15:21:00,86.6,78.9,28.30,SSW,206,0.0,13.0,78,0.00,,,0.00,0,Wunderground v.1.15,2013-08-24 20:21:00,
2013-08-24 15:23:00,86.7,78.6,28.30,South,191,8.0,12.0,77,0.00,,,0.00,0,Wunderground v.1.15,2013-08-24 20:23:00,
2013-08-24 15:24:00,86.6,78.5,28.30,South,177,0.0,12.0,77,0.00,,,0.00,0,Wunderground v.1.15,2013-08-24 20:24:00,
2013-08-24 15:25:00,86.7,79.0,28.30,SW,225,2.0,-999.0,78,0.00,,,0.03,,Wunderground v.1.15,2013-08-24 20:25:00,
2013-08-24 15:26:00,86.6,78.5,28.30,SSW,197,0.0,12.0,77,0.00,,,0.00,0,Wunderground v.1.15,2013-08-24 20:26:00,
2013-08-24 15:28:00,86.7,78.6,28.30,SW,223,0.0,14.0,77,0.00,,,0.00,0,Wunderground v.1.15,2013-08-24 20:28:00,
2013-08-24 15:29:00,86.7,78.6,28.30,SSW,203,0.0,14.0,77,0.00,,,0.00,0,Wunderground v.1.15,2013-08-24 20:29:00,
2013-08-24 15:30:00,86.6,78.9,28.30,SW,225,2.0,-999.0,78,0.00,,,0.03,,Wunderground v.1.15,2013-08-24 20:30:00,
2013-08-24 15:31:00,86.6,78.9,28.30,SSW,202,0.0,14.0,78,0.00,,,0.00,0,Wunderground v.1.15,2013-08-24 20:31:00,
2013-08-24 15:33:00,86.6,78.9,28.30,SSW,210,2.0,9.0,78,0.00,,,0.00,0,Wunderground v.1.15,2013-08-24 20:33:00,
2013-08-24 15:34:00,86.6,78.9,28.30,SSW,198,5.0,9.0,78,0.00,,,0.00,0,Wunderground v.1.15,2013-08-24 20:34:00,
2013-08-24 15:35:00,86.5,78.8,28.30,N/A,-737280,0.0,-999.0,78,0.00,,,0.03,,Wunderground v.1.15,2013-08-24 20:35:00,
2013-08-24 15:36:00,86.5,78.8,28.30,South,188,0.0,9.0,78,0.00,,,0.00,0,Wunderground v.1.15,2013-08-24 20:36:00,
2013-08-24 15:38:00,86.5,78.8,28.30,SW,217,1.0,9.0,78,0.00,,,0.00,0,Wunderground v.1.15,2013-08-24 20:38:00,
2013-08-24 15:39:00,86.5,78.8,28.30,SW,235,0.0,9.0,78,0.00,,,0.00,0,Wunderground v.1.15,2013-08-24 20:39:00,
2013-08-24 15:40:00,86.6,78.9,28.30,South,182,0.0,9.0,78,0.00,,,0.00,0,Wunderground v.1.15,2013-08-24 20:40:00,
2013-08-24 15:41:00,86.5,78.8,28.30,South,190,0.0,0.0,78,0.00,,,0.00,0,Wunderground v.1.15,2013-08-24 20:41:00,
2013-08-24 15:43:00,86.4,78.7,28.30,SSW,206,0.0,0.0,78,0.00,,,0.00,0,Wunderground v.1.15,2013-08-24 20:43:00,
2013-08-24 15:44:00,86.4,79.1,28.30,SSE,164,0.0,2.0,79,0.00,,,0.00,0,Wunderground v.1.15,2013-08-24 20:44:00,
2013-08-24 15:45:00,86.4,79.1,28.30,SSW,195,0.0,2.0,79,0.00,,,0.00,0,Wunderground v.1.15,2013-08-24 20:45:00,
2013-08-24 15:46:00,86.4,78.7,28.30,SSW,194,0.0,2.0,78,0.00,,,0.00,0,Wunderground v.1.15,2013-08-24 20:46:00,
2013-08-24 15:49:00,86.4,79.1,28.30,SW,224,0.0,2.0,79,0.00,,,0.00,0,Wunderground v.1.15,2013-08-24 20:49:00,
2013-08-24 15:50:00,86.4,78.7,28.29,SSW,198,0.0,2.0,78,0.00,,,0.00,0,Wunderground v.1.15,2013-08-24 20:50:00,
2013-08-24 15:51:00,86.4,78.7,28.29,SW,222,0.0,0.0,78,0.00,,,0.00,0,Wunderground v.1.15,2013-08-24 20:51:00,
2013-08-24 15:54:00,86.4,78.7,28.29,WSW,244,0.0,7.0,78,0.00,,,0.00,0,Wunderground v.1.15,2013-08-24 20:54:00,
2013-08-24 15:55:00,86.3,78.6,28.29,SW,226,0.0,7.0,78,0.00,,,0.00,0,Wunderground v.1.15,2013-08-24 20:55:00,
2013-08-24 15:56:00,86.3,78.6,28.29,SSE,168,2.0,7.0,78,0.00,,,0.00,0,Wunderground v.1.15,2013-08-24 20:56:00,
2013-08-24 15:59:00,86.3,78.6,28.29,SW,219,1.0,7.0,78,0.00,,,0.00,0,Wunderground v.1.15,2013-08-24 20:59:00,
2013-08-24 16:00:00,86.3,78.6,28.29,WSW,239,0.0,7.0,78,0.00,,,0.00,0,Wunderground v.1.15,2013-08-24 21:00:00,
2013-08-24 16:01:00,86.4,78.7,28.29,SW,229,0.0,0.0,78,0.00,,,0.00,0,Wunderground v.1.15,2013-08-24 21:01:00,
2013-08-24 16:05:00,86.4,78.7,28.29,South,184,0.0,8.0,78,0.00,,,0.00,0,Wunderground v.1.15,2013-08-24 21:05:00,
2013-08-24 16:06:00,86.4,78.7,28.29,SSW,211,0.0,8.0,78,0.00,,,0.00,0,Wunderground v.1.15,2013-08-24 21:06:00,
2013-08-24 16:10:00,86.2,78.5,28.28,South,188,0.0,10.0,78,0.00,,,0.00,0,Wunderground v.1.15,2013-08-24 21:10:00,
2013-08-24 16:11:00,86.1,78.4,28.29,SW,220,0.0,1.0,78,0.00,,,0.00,0,Wunderground v.1.15,2013-08-24 21:11:00,
2013-08-24 16:15:00,85.9,78.2,28.30,SSW,206,0.0,11.0,78,0.00,,,0.00,0,Wunderground v.1.15,2013-08-24 21:15:00,
2013-08-24 16:16:00,85.8,78.5,28.30,WSW,258,0.0,11.0,79,0.00,,,0.00,0,Wunderground v.1.15,2013-08-24 21:16:00,
2013-08-24 16:20:00,85.7,78.4,28.30,SSW,202,0.0,11.0,79,0.00,,,0.00,0,Wunderground v.1.15,2013-08-24 21:20:00,
2013-08-24 16:21:00,85.6,78.3,28.30,SW,214,1.0,2.0,79,0.00,,,0.00,0,Wunderground v.1.15,2013-08-24 21:21:00,
2013-08-24 16:23:00,85.6,78.3,28.29,SW,233,0.0,2.0,79,0.00,,,0.00,0,Wunderground v.1.15,2013-08-24 21:23:00,
2013-08-24 16:25:00,85.5,78.6,28.29,SSW,211,0.0,2.0,80,0.00,,,0.00,0,Wunderground v.1.15,2013-08-24 21:25:00,
2013-08-24 16:26:00,85.5,78.6,28.29,SSW,204,0.0,2.0,80,0.00,,,0.00,0,Wunderground v.1.15,2013-08-24 21:26:00,
2013-08-24 16:27:00,85.4,78.1,28.29,SW,228,2.0,3.0,79,0.00,,,0.00,0,Wunderground v.1.15,2013-08-24 21:27:00,
2013-08-24 16:28:00,85.3,78.4,28.29,SW,219,0.0,3.0,80,0.00,,,0.00,0,Wunderground v.1.15,2013-08-24 21:28:00,
2013-08-24 16:30:00,85.2,78.7,28.28,N/A,-737280,0.0,-999.0,81,0.00,,,0.03,,Wunderground v.1.15,2013-08-24 21:30:00,
2013-08-24 16:31:00,85.2,78.3,28.29,SSW,199,0.0,3.0,80,0.00,,,0.00,0,Wunderground v.1.15,2013-08-24 21:31:00,
2013-08-24 16:32:00,85.1,78.6,28.29,SSW,199,0.0,0.0,81,0.00,,,0.00,0,Wunderground v.1.15,2013-08-24 21:32:00,
2013-08-24 16:33:00,85.1,78.6,28.29,SSW,212,0.0,0.0,81,0.00,,,0.00,0,Wunderground v.1.15,2013-08-24 21:33:00,
2013-08-24 16:35:00,84.9,78.4,28.28,SSW,203,1.0,-999.0,81,0.00,,,0.03,,Wunderground v.1.15,2013-08-24 21:35:00,
2013-08-24 16:36:00,84.9,78.4,28.29,SSW,197,0.0,7.0,81,0.00,,,0.00,0,Wunderground v.1.15,2013-08-24 21:36:00,
2013-08-24 16:37:00,84.8,78.3,28.29,SW,214,0.0,7.0,81,0.00,,,0.00,0,Wunderground v.1.15,2013-08-24 21:37:00,
2013-08-24 16:38:00,84.8,78.3,28.29,SW,215,0.0,7.0,81,0.00,,,0.00,0,Wunderground v.1.15,2013-08-24 21:38:00,
2013-08-24 16:40:00,84.7,78.2,28.29,N/A,-737280,0.0,-999.0,81,0.00,,,0.03,,Wunderground v.1.15,2013-08-24 21:40:00,
2013-08-24 16:41:00,84.7,78.2,28.29,SW,227,0.0,8.0,81,0.00,,,0.00,0,Wunderground v.1.15,2013-08-24 21:41:00,
2013-08-24 16:42:00,84.7,78.2,28.29,SW,226,0.0,0.0,81,0.00,,,0.00,0,Wunderground v.1.15,2013-08-24 21:42:00,
2013-08-24 16:43:00,84.7,78.2,28.29,SSW,195,0.0,6.0,81,0.00,,,0.00,0,Wunderground v.1.15,2013-08-24 21:43:00,
2013-08-24 16:45:00,84.6,78.1,28.29,N/A,-737280,0.0,-999.0,81,0.00,,,0.03,,Wunderground v.1.15,2013-08-24 21:45:00,
2013-08-24 16:46:00,84.6,78.1,28.29,SW,224,0.0,6.0,81,0.00,,,0.00,0,Wunderground v.1.15,2013-08-24 21:46:00,
2013-08-24 16:47:00,84.6,78.1,28.29,SW,225,0.0,6.0,81,0.00,,,0.00,0,Wunderground v.1.15,2013-08-24 21:47:00,
2013-08-24 16:48:00,84.5,78.0,28.29,SW,217,0.0,6.0,81,0.00,,,0.00,0,Wunderground v.1.15,2013-08-24 21:48:00,
2013-08-24 16:49:00,84.5,78.0,28.29,SSW,207,0.0,6.0,81,0.00,,,0.00,0,Wunderground v.1.15,2013-08-24 21:49:00,
2013-08-24 16:50:00,84.5,78.0,28.29,SW,225,1.0,-999.0,81,0.00,,,0.03,,Wunderground v.1.15,2013-08-24 21:50:00,
2013-08-24 16:52:00,84.4,77.9,28.29,SW,218,0.0,0.0,81,0.00,,,0.00,0,Wunderground v.1.15,2013-08-24 21:52:00,
2013-08-24 16:53:00,84.4,78.3,28.29,SW,228,0.0,0.0,82,0.00,,,0.00,0,Wunderground v.1.15,2013-08-24 21:53:00,
2013-08-24 16:54:00,84.4,78.3,28.29,SSW,213,0.0,5.0,82,0.00,,,0.00,0,Wunderground v.1.15,2013-08-24 21:54:00,
2013-08-24 16:55:00,84.3,78.2,28.29,SW,225,3.0,-999.0,82,0.00,,,0.03,,Wunderground v.1.15,2013-08-24 21:55:00,
2013-08-24 16:57:00,84.3,78.2,28.29,SSW,196,2.0,6.0,82,0.00,,,0.00,0,Wunderground v.1.15,2013-08-24 21:57:00,
2013-08-24 16:58:00,84.3,78.2,28.29,SW,219,4.0,6.0,82,0.00,,,0.00,0,Wunderground v.1.15,2013-08-24 21:58:00,
2013-08-24 16:59:00,84.3,78.2,28.30,SSW,201,0.0,6.0,82,0.00,,,0.00,0,Wunderground v.1.15,2013-08-24 21:59:00,
2013-08-24 17:00:00,84.2,77.7,28.29,SW,225,9.0,-999.0,81,0.00,,,0.03,,Wunderground v.1.15,2013-08-24 22:00:00,
2013-08-24 17:02:00,84.1,77.6,28.30,SSW,196,8.0,16.0,81,0.00,,,0.00,0,Wunderground v.1.15,2013-08-24 22:02:00,
2013-08-24 17:03:00,83.9,77.4,28.30,SW,236,8.0,16.0,81,0.00,,,0.00,0,Wunderground v.1.15,2013-08-24 22:03:00,
2013-08-24 17:04:00,83.5,77.1,28.29,SW,232,2.0,16.0,81,0.00,,,0.00,0,Wunderground v.1.15,2013-08-24 22:04:00,
2013-08-24 17:05:00,83.0,76.2,28.29,WSW,248,8.0,-999.0,80,0.00,,,0.03,,Wunderground v.1.15,2013-08-24 22:05:00,
2013-08-24 17:08:00,82.4,75.6,28.29,SW,222,5.0,16.0,80,0.00,,,0.00,0,Wunderground v.1.15,2013-08-24 22:08:00,
2013-08-24 17:09:00,82.0,75.2,28.30,WSW,239,10.0,16.0,80,0.00,,,0.00,0,Wunderground v.1.15,2013-08-24 22:09:00,
2013-08-24 17:10:00,80.9,74.5,28.29,SW,225,6.0,-999.0,81,0.00,,,0.03,,Wunderground v.1.15,2013-08-24 22:10:00,
2013-08-24 17:11:00,81.2,74.4,28.29,WSW,239,3.0,17.0,80,0.00,,,0.00,0,Wunderground v.1.15,2013-08-24 22:11:00,
2013-08-24 17:13:00,80.2,74.2,28.29,SW,232,5.0,10.0,82,0.00,,,0.00,0,Wunderground v.1.15,2013-08-24 22:13:00,
2013-08-24 17:14:00,79.8,73.8,28.29,WSW,244,0.0,10.0,82,0.00,,,0.00,0,Wunderground v.1.15,2013-08-24 22:14:00,
2013-08-24 17:15:00,79.2,73.9,28.28,SW,225,4.0,-999.0,84,0.00,,,0.03,,Wunderground v.1.15,2013-08-24 22:15:00,
2013-08-24 17:16:00,79.3,74.0,28.29,WSW,243,3.0,10.0,84,0.00,,,0.00,0,Wunderground v.1.15,2013-08-24 22:16:00,
2013-08-24 17:18:00,78.8,73.9,28.28,SW,218,0.0,10.0,85,0.00,,,0.00,0,Wunderground v.1.15,2013-08-24 22:18:00,
2013-08-24 17:19:00,78.6,73.7,28.28,West,267,0.0,10.0,85,0.00,,,0.00,0,Wunderground v.1.15,2013-08-24 22:19:00,
2013-08-24 17:20:00,78.4,73.9,28.28,N/A,-737280,0.0,-999.0,86,0.00,,,0.03,,Wunderground v.1.15,2013-08-24 22:20:00,
2013-08-24 17:21:00,78.4,73.9,28.29,SW,224,0.0,0.0,86,0.00,,,0.00,0,Wunderground v.1.15,2013-08-24 22:21:00,
2013-08-24 17:23:00,78.2,74.0,28.29,SSW,211,1.0,7.0,87,0.00,,,0.00,0,Wunderground v.1.15,2013-08-24 22:23:00,
2013-08-24 17:24:00,78.0,73.8,28.28,SW,225,0.0,7.0,87,0.00,,,0.00,0,Wunderground v.1.15,2013-08-24 22:24:00,
2013-08-24 17:25:00,77.8,74.0,28.28,N/A,-737280,0.0,-999.0,88,0.00,,,0.03,,Wunderground v.1.15,2013-08-24 22:25:00,
2013-08-24 17:26:00,77.7,73.9,28.28,SW,225,0.0,7.0,88,0.00,,,0.00,0,Wunderground v.1.15,2013-08-24 22:26:00,
2013-08-24 17:28:00,77.6,74.1,28.28,SW,228,0.0,7.0,89,0.00,,,0.00,0,Wunderground v.1.15,2013-08-24 22:28:00,
2013-08-24 17:30:00,77.5,74.0,28.28,SW,231,0.0,7.0,89,0.00,,,0.00,0,Wunderground v.1.15,2013-08-24 22:30:00,
2013-08-24 17:31:00,77.4,74.2,28.28,SW,234,0.0,0.0,90,0.00,,,0.00,0,Wunderground v.1.15,2013-08-24 22:31:00,
2013-08-24 17:33:00,77.2,74.0,28.28,SW,234,0.0,0.0,90,0.00,,,0.00,0,Wunderground v.1.15,2013-08-24 22:33:00,
2013-08-24 17:35:00,77.2,74.0,28.28,SW,231,0.0,0.0,90,0.00,,,0.00,0,Wunderground v.1.15,2013-08-24 22:35:00,
2013-08-24 17:37:00,77.0,73.8,28.28,SW,222,0.0,0.0,90,0.00,,,0.00,0,Wunderground v.1.15,2013-08-24 22:37:00,
2013-08-24 17:39:00,76.9,74.1,28.28,SW,220,0.0,0.0,91,0.00,,,0.00,0,Wunderground v.1.15,2013-08-24 22:39:00,
2013-08-24 17:40:00,76.7,73.9,28.28,SW,220,0.0,0.0,91,0.00,,,0.00,0,Wunderground v.1.15,2013-08-24 22:40:00,
2013-08-24 17:41:00,76.7,73.9,28.27,SW,220,0.0,0.0,91,0.00,,,0.00,0,Wunderground v.1.15,2013-08-24 22:41:00,
2013-08-24 17:42:00,76.6,73.8,28.27,SW,220,0.0,0.0,91,0.00,,,0.00,0,Wunderground v.1.15,2013-08-24 22:42:00,
2013-08-24 17:44:00,76.5,74.0,28.27,SW,220,0.0,0.0,92,0.00,,,0.00,0,Wunderground v.1.15,2013-08-24 22:44:00,
2013-08-24 17:45:00,76.5,74.0,28.27,SW,220,0.0,0.0,92,0.00,,,0.00,0,Wunderground v.1.15,2013-08-24 22:45:00,
2013-08-24 17:46:00,76.5,74.0,28.27,SW,220,0.0,0.0,92,0.00,,,0.00,0,Wunderground v.1.15,2013-08-24 22:46:00,
2013-08-24 17:48:00,76.3,74.1,28.27,SW,220,0.0,0.0,93,0.00,,,0.00,0,Wunderground v.1.15,2013-08-24 22:48:00,
2013-08-24 17:49:00,76.2,74.0,28.28,SW,220,0.0,0.0,93,0.00,,,0.00,0,Wunderground v.1.15,2013-08-24 22:49:00,
2013-08-24 17:50:00,76.1,74.2,28.28,SW,220,0.0,0.0,94,0.00,,,0.00,0,Wunderground v.1.15,2013-08-24 22:50:00,
2013-08-24 17:51:00,76.0,74.1,28.29,SW,220,0.0,0.0,94,0.00,,,0.00,0,Wunderground v.1.15,2013-08-24 22:51:00,
2013-08-24 17:53:00,75.7,73.8,28.30,SW,218,0.0,0.0,94,0.00,,,0.00,0,Wunderground v.1.15,2013-08-24 22:53:00,
2013-08-24 17:54:00,75.5,74.0,28.30,SSW,206,0.0,4.0,95,0.00,,,0.00,0,Wunderground v.1.15,2013-08-24 22:54:00,
2013-08-24 17:55:00,75.4,73.9,28.30,SSW,206,0.0,4.0,95,0.00,,,0.00,0,Wunderground v.1.15,2013-08-24 22:55:00,
2013-08-24 17:56:00,75.4,73.9,28.30,SSW,206,0.0,4.0,95,0.00,,,0.00,0,Wunderground v.1.15,2013-08-24 22:56:00,
2013-08-24 17:58:00,75.1,73.9,28.30,SSW,206,0.0,4.0,96,0.00,,,0.00,0,Wunderground v.1.15,2013-08-24 22:58:00,
2013-08-24 18:00:00,74.9,73.7,28.30,SSW,205,0.0,4.0,96,0.00,,,0.00,0,Wunderground v.1.15,2013-08-24 23:00:00,
2013-08-24 18:01:00,74.8,73.9,28.30,SSW,206,0.0,4.0,97,0.00,,,0.00,0,Wunderground v.1.15,2013-08-24 23:01:00,
2013-08-24 18:02:00,74.7,73.8,28.30,SSW,205,0.0,0.0,97,0.00,,,0.00,0,Wunderground v.1.15,2013-08-24 23:02:00,
2013-08-24 18:03:00,74.6,73.7,28.30,SSW,205,0.0,0.0,97,0.00,,,0.00,0,Wunderground v.1.15,2013-08-24 23:03:00,
2013-08-24 18:05:00,74.4,73.5,28.30,SW,218,0.0,0.0,97,0.00,,,0.00,0,Wunderground v.1.15,2013-08-24 23:05:00,
2013-08-24 18:06:00,74.3,73.4,28.30,SW,218,0.0,0.0,97,0.00,,,0.00,0,Wunderground v.1.15,2013-08-24 23:06:00,
2013-08-24 18:07:00,74.3,73.4,28.30,SW,219,0.0,2.0,97,0.00,,,0.00,0,Wunderground v.1.15,2013-08-24 23:07:00,
2013-08-24 18:08:00,74.2,73.3,28.30,SW,221,0.0,2.0,97,0.00,,,0.00,0,Wunderground v.1.15,2013-08-24 23:08:00,
2013-08-24 18:10:00,74.1,73.5,28.31,N/A,-737280,0.0,-999.0,98,0.03,,,0.03,,Wunderground v.1.15,2013-08-24 23:10:00,
2013-08-24 18:11:00,74.1,73.5,28.31,SW,220,0.0,2.0,98,0.00,,,0.00,0,Wunderground v.1.15,2013-08-24 23:11:00,
2013-08-24 18:13:00,74.0,73.4,28.31,SW,217,0.0,0.0,98,0.00,,,0.00,0,Wunderground v.1.15,2013-08-24 23:13:00,
2013-08-24 18:15:00,73.8,73.2,28.31,South,180,5.0,-999.0,98,0.03,,,0.03,,Wunderground v.1.15,2013-08-24 23:15:00,
2013-08-24 18:16:00,73.8,73.2,28.31,South,181,7.0,8.0,98,0.00,,,0.00,0,Wunderground v.1.15,2013-08-24 23:16:00,
2013-08-24 18:17:00,73.8,73.2,28.31,South,171,4.0,9.0,98,0.00,,,0.00,0,Wunderground v.1.15,2013-08-24 23:17:00,
2013-08-24 18:18:00,73.7,73.1,28.31,SW,232,0.0,9.0,98,0.00,,,0.00,0,Wunderground v.1.15,2013-08-24 23:18:00,
2013-08-24 18:20:00,73.5,72.9,28.31,SSW,203,2.0,-999.0,98,0.03,,,0.03,,Wunderground v.1.15,2013-08-24 23:20:00,
2013-08-24 18:21:00,73.5,72.9,28.31,SSW,196,0.0,9.0,98,0.00,,,0.00,0,Wunderground v.1.15,2013-08-24 23:21:00,
2013-08-24 18:22:00,73.5,72.9,28.31,South,185,0.0,3.0,98,0.00,,,0.00,0,Wunderground v.1.15,2013-08-24 23:22:00,
2013-08-24 18:24:00,73.4,72.8,28.31,SSW,193,5.0,7.0,98,0.00,,,0.00,0,Wunderground v.1.15,2013-08-24 23:24:00,
2013-08-24 18:25:00,73.3,72.7,28.31,South,180,3.0,-999.0,98,0.03,,,0.03,,Wunderground v.1.15,2013-08-24 23:25:00,
2013-08-24 18:26:00,73.3,72.7,28.31,South,190,5.0,12.0,98,0.00,,,0.00,0,Wunderground v.1.15,2013-08-24 23:26:00,
2013-08-24 18:27:00,73.3,72.7,28.32,SSE,154,0.0,12.0,98,0.00,,,0.00,0,Wunderground v.1.15,2013-08-24 23:27:00,
2013-08-24 18:29:00,73.1,72.5,28.31,SW,224,3.0,12.0,98,0.00,,,0.00,0,Wunderground v.1.15,2013-08-24 23:29:00,
2013-08-24 18:30:00,73.0,72.4,28.32,SSW,203,3.0,-999.0,98,0.03,,,0.03,,Wunderground v.1.15,2013-08-24 23:30:00,
2013-08-24 18:31:00,73.0,72.4,28.32,South,191,6.0,6.0,98,0.00,,,0.00,0,Wunderground v.1.15,2013-08-24 23:31:00,
2013-08-24 18:32:00,72.9,72.3,28.32,SSW,195,7.0,13.0,98,0.00,,,0.00,0,Wunderground v.1.15,2013-08-24 23:32:00,
2013-08-24 18:34:00,72.8,72.2,28.32,South,182,0.0,13.0,98,0.00,,,0.00,0,Wunderground v.1.15,2013-08-24 23:34:00,
2013-08-24 18:35:00,72.7,72.1,28.32,SSE,165,4.0,13.0,98,0.00,,,0.00,0,Wunderground v.1.15,2013-08-24 23:35:00,
2013-08-24 18:36:00,72.6,72.0,28.32,SW,219,0.0,13.0,98,0.00,,,0.00,0,Wunderground v.1.15,2013-08-24 23:36:00,
2013-08-24 18:37:00,72.5,72.2,28.32,SW,225,6.0,13.0,99,0.00,,,0.00,0,Wunderground v.1.15,2013-08-24 23:37:00,
2013-08-24 18:39:00,72.5,72.2,28.32,SW,219,0.0,13.0,99,0.00,,,0.00,0,Wunderground v.1.15,2013-08-24 23:39:00,
2013-08-24 18:40:00,72.4,72.1,28.32,South,191,0.0,13.0,99,0.00,,,0.00,0,Wunderground v.1.15,2013-08-24 23:40:00,
2013-08-24 18:41:00,72.4,72.1,28.32,SSE,157,0.0,0.0,99,0.00,,,0.00,0,Wunderground v.1.15,2013-08-24 23:41:00,
2013-08-24 18:43:00,72.3,72.0,28.32,SSW,194,6.0,7.0,99,0.00,,,0.00,0,Wunderground v.1.15,2013-08-24 23:43:00,
2013-08-24 18:44:00,72.2,71.9,28.32,WSW,256,1.0,7.0,99,0.00,,,0.00,0,Wunderground v.1.15,2013-08-24 23:44:00,
2013-08-24 18:45:00,72.2,72.2,28.32,SSW,206,3.0,8.0,100,0.00,,,0.00,0,Wunderground v.1.15,2013-08-24 23:45:00,
2013-08-24 18:46:00,72.2,71.9,28.31,SW,215,5.0,8.0,99,0.00,,,0.00,0,Wunderground v.1.15,2013-08-24 23:46:00,
2013-08-24 18:48:00,72.2,72.2,28.32,SSW,200,0.0,8.0,100,0.00,,,0.00,0,Wunderground v.1.15,2013-08-24 23:48:00,
2013-08-24 18:49:00,72.3,72.3,28.31,SW,223,0.0,8.0,100,0.00,,,0.00,0,Wunderground v.1.15,2013-08-24 23:49:00,
2013-08-24 18:50:00,72.3,72.3,28.31,South,180,4.0,-999.0,100,0.02,,,0.03,,Wunderground v.1.15,2013-08-24 23:50:00,
2013-08-24 18:51:00,72.3,72.3,28.31,SSW,207,2.0,8.0,100,0.00,,,0.00,0,Wunderground v.1.15,2013-08-24 23:51:00,
2013-08-24 18:53:00,72.4,72.4,28.31,SSW,211,0.0,9.0,100,0.00,,,0.00,0,Wunderground v.1.15,2013-08-24 23:53:00,
2013-08-24 18:55:00,72.5,72.5,28.31,SSW,199,0.0,9.0,100,0.00,,,0.00,0,Wunderground v.1.15,2013-08-24 23:55:00,
2013-08-24 18:56:00,72.6,72.6,28.31,SSW,203,0.0,9.0,100,0.00,,,0.00,0,Wunderground v.1.15,2013-08-24 23:56:00,
2013-08-24 18:59:00,72.7,72.7,28.31,SSW,200,1.0,9.0,100,0.00,,,0.00,0,Wunderground v.1.15,2013-08-24 23:59:00,
2013-08-24 19:00:00,72.8,72.8,28.31,WSW,241,5.0,9.0,100,0.00,,,0.00,0,Wunderground v.1.15,2013-08-25 00:00:00,
2013-08-24 19:02:00,72.9,72.9,28.31,SW,236,0.0,5.0,100,0.00,,,0.00,0,Wunderground v.1.15,2013-08-25 00:02:00,
2013-08-24 19:04:00,73.0,73.0,28.31,SSW,209,0.0,7.0,100,0.00,,,0.00,0,Wunderground v.1.15,2013-08-25 00:04:00,
2013-08-24 19:05:00,73.0,73.0,28.30,SSW,199,0.0,7.0,100,0.00,,,0.00,0,Wunderground v.1.15,2013-08-25 00:05:00,
2013-08-24 19:07:00,73.2,73.2,28.30,SSW,195,0.0,10.0,100,0.00,,,0.00,0,Wunderground v.1.15,2013-08-25 00:07:00,
2013-08-24 19:08:00,73.2,73.2,28.30,South,171,0.0,10.0,100,0.00,,,0.00,0,Wunderground v.1.15,2013-08-25 00:08:00,
2013-08-24 19:10:00,73.4,73.4,28.30,SSW,210,6.0,10.0,100,0.00,,,0.00,0,Wunderground v.1.15,2013-08-25 00:10:00,
2013-08-24 19:11:00,73.5,73.5,28.30,SW,219,0.0,10.0,100,0.00,,,0.00,0,Wunderground v.1.15,2013-08-25 00:11:00,
2013-08-24 19:12:00,73.6,73.6,28.29,SSW,195,0.0,2.0,100,0.00,,,0.00,0,Wunderground v.1.15,2013-08-25 00:12:00,
2013-08-24 19:14:00,73.7,73.7,28.29,South,172,0.0,2.0,100,0.00,,,0.00,0,Wunderground v.1.15,2013-08-25 00:14:00,
2013-08-24 19:15:00,73.8,73.8,28.29,SSE,161,0.0,2.0,100,0.00,,,0.00,0,Wunderground v.1.15,2013-08-25 00:15:00,
2013-08-24 19:16:00,73.8,73.8,28.29,SSW,196,0.0,2.0,100,0.00,,,0.00,0,Wunderground v.1.15,2013-08-25 00:16:00,
2013-08-24 19:18:00,73.9,73.9,28.29,WSW,247,2.0,9.0,100,0.00,,,0.00,0,Wunderground v.1.15,2013-08-25 00:18:00,
2013-08-24 19:19:00,74.0,74.0,28.29,SW,219,0.0,9.0,100,0.00,,,0.00,0,Wunderground v.1.15,2013-08-25 00:19:00,
2013-08-24 19:20:00,74.0,74.0,28.28,SW,215,0.0,9.0,100,0.00,,,0.00,0,Wunderground v.1.15,2013-08-25 00:20:00,
2013-08-24 19:21:00,74.0,73.7,28.28,South,172,8.0,9.0,99,0.00,,,0.00,0,Wunderground v.1.15,2013-08-25 00:21:00,
2013-08-24 19:23:00,74.1,73.8,28.28,WSW,237,4.0,4.0,99,0.00,,,0.00,0,Wunderground v.1.15,2013-08-25 00:23:00,
2013-08-24 19:25:00,74.2,73.9,28.28,SSW,194,0.0,5.0,99,0.00,,,0.00,0,Wunderground v.1.15,2013-08-25 00:25:00,
2013-08-24 19:26:00,74.2,73.9,28.28,West,264,0.0,5.0,99,0.00,,,0.00,0,Wunderground v.1.15,2013-08-25 00:26:00,
2013-08-24 19:29:00,74.3,73.7,28.28,SSW,195,0.0,7.0,98,0.00,,,0.00,0,Wunderground v.1.15,2013-08-25 00:29:00,
2013-08-24 19:30:00,74.4,73.8,28.28,SW,232,0.0,7.0,98,0.00,,,0.00,0,Wunderground v.1.15,2013-08-25 00:30:00,
2013-08-24 19:31:00,74.5,73.9,28.28,SW,223,1.0,8.0,98,0.00,,,0.00,0,Wunderground v.1.15,2013-08-25 00:31:00,
2013-08-24 19:32:00,74.5,73.9,28.28,WSW,243,0.0,0.0,98,0.00,,,0.00,0,Wunderground v.1.15,2013-08-25 00:32:00,
2013-08-24 19:34:00,74.5,73.9,28.28,SW,233,6.0,6.0,98,0.00,,,0.00,0,Wunderground v.1.15,2013-08-25 00:34:00,
2013-08-24 19:35:00,74.5,73.6,28.28,SW,231,3.0,6.0,97,0.00,,,0.00,0,Wunderground v.1.15,2013-08-25 00:35:00,
2013-08-24 19:36:00,74.5,73.6,28.28,SSW,211,0.0,6.0,97,0.00,,,0.00,0,Wunderground v.1.15,2013-08-25 00:36:00,
2013-08-24 19:37:00,74.6,73.7,28.28,SW,221,0.0,6.0,97,0.00,,,0.00,0,Wunderground v.1.15,2013-08-25 00:37:00,
2013-08-24 19:39:00,74.6,73.7,28.28,SW,216,0.0,6.0,97,0.00,,,0.00,0,Wunderground v.1.15,2013-08-25 00:39:00,
2013-08-24 19:40:00,74.6,73.7,28.27,SW,229,0.0,6.0,97,0.00,,,0.00,0,Wunderground v.1.15,2013-08-25 00:40:00,
2013-08-24 19:41:00,74.6,73.7,28.28,SW,230,0.0,1.0,97,0.00,,,0.00,0,Wunderground v.1.15,2013-08-25 00:41:00,
2013-08-24 19:43:00,74.5,73.6,28.27,SW,226,0.0,1.0,97,0.00,,,0.00,0,Wunderground v.1.15,2013-08-25 00:43:00,
2013-08-24 19:44:00,74.5,73.6,28.27,SSW,213,0.0,6.0,97,0.00,,,0.00,0,Wunderground v.1.15,2013-08-25 00:44:00,
2013-08-24 19:45:00,74.5,73.6,28.27,SSW,206,0.0,6.0,97,0.00,,,0.00,0,Wunderground v.1.15,2013-08-25 00:45:00,
2013-08-24 19:46:00,74.5,73.6,28.27,WSW,244,0.0,6.0,97,0.00,,,0.00,0,Wunderground v.1.15,2013-08-25 00:46:00,
2013-08-24 19:47:00,74.5,73.6,28.27,WSW,239,0.0,6.0,97,0.00,,,0.00,0,Wunderground v.1.15,2013-08-25 00:47:00,
2013-08-24 19:48:00,74.4,73.5,28.27,South,187,0.0,6.0,97,0.00,,,0.00,0,Wunderground v.1.15,2013-08-25 00:48:00,
2013-08-24 19:49:00,74.4,73.5,28.27,SSW,213,0.0,6.0,97,0.00,,,0.00,0,Wunderground v.1.15,2013-08-25 00:49:00,
2013-08-24 19:50:00,74.4,73.5,28.27,SW,229,0.0,6.0,97,0.00,,,0.00,0,Wunderground v.1.15,2013-08-25 00:50:00,
2013-08-24 19:51:00,74.4,73.5,28.27,WSW,242,0.0,0.0,97,0.00,,,0.00,0,Wunderground v.1.15,2013-08-25 00:51:00,
2013-08-24 19:52:00,74.4,73.5,28.27,WSW,238,0.0,0.0,97,0.00,,,0.00,0,Wunderground v.1.15,2013-08-25 00:52:00,
2013-08-24 19:53:00,74.4,73.5,28.27,SW,233,0.0,0.0,97,0.00,,,0.00,0,Wunderground v.1.15,2013-08-25 00:53:00,
2013-08-24 19:55:00,74.3,73.4,28.27,SW,233,0.0,0.0,97,0.00,,,0.00,0,Wunderground v.1.15,2013-08-25 00:55:00,
2013-08-24 19:57:00,74.3,73.4,28.27,SW,233,0.0,0.0,97,0.00,,,0.00,0,Wunderground v.1.15,2013-08-25 00:57:00,
2013-08-24 19:58:00,74.3,73.4,28.27,SW,232,0.0,0.0,97,0.00,,,0.00,0,Wunderground v.1.15,2013-08-25 00:58:00,
2013-08-24 20:00:00,74.3,73.4,28.27,SW,232,0.0,0.0,97,0.00,,,0.00,0,Wunderground v.1.15,2013-08-25 01:00:00,
2013-08-24 20:02:00,74.3,73.4,28.27,SW,232,0.0,0.0,97,0.00,,,0.00,0,Wunderground v.1.15,2013-08-25 01:02:00,
2013-08-24 20:03:00,74.3,73.4,28.27,SW,232,0.0,0.0,97,0.00,,,0.00,0,Wunderground v.1.15,2013-08-25 01:03:00,
2013-08-24 20:05:00,74.2,73.3,28.27,SW,232,0.0,0.0,97,0.00,,,0.00,0,Wunderground v.1.15,2013-08-25 01:05:00,
2013-08-24 20:07:00,74.2,73.6,28.27,SW,232,0.0,0.0,98,0.00,,,0.00,0,Wunderground v.1.15,2013-08-25 01:07:00,
2013-08-24 20:08:00,74.2,73.6,28.27,SW,232,0.0,1.0,98,0.00,,,0.00,0,Wunderground v.1.15,2013-08-25 01:08:00,
2013-08-24 20:10:00,74.1,73.5,28.27,SW,232,0.0,1.0,98,0.00,,,0.00,0,Wunderground v.1.15,2013-08-25 01:10:00,
2013-08-24 20:11:00,74.1,73.5,28.27,SW,227,0.0,1.0,98,0.00,,,0.00,0,Wunderground v.1.15,2013-08-25 01:11:00,
2013-08-24 20:12:00,74.1,73.5,28.27,SW,227,0.0,0.0,98,0.00,,,0.00,0,Wunderground v.1.15,2013-08-25 01:12:00,
2013-08-24 20:13:00,74.1,73.5,28.27,SW,227,0.0,0.0,98,0.00,,,0.00,0,Wunderground v.1.15,2013-08-25 01:13:00,
2013-08-24 20:14:00,74.0,73.4,28.27,SW,227,0.0,0.0,98,0.00,,,0.00,0,Wunderground v.1.15,2013-08-25 01:14:00,
2013-08-24 20:15:00,74.0,73.4,28.27,SW,226,0.0,0.0,98,0.00,,,0.00,0,Wunderground v.1.15,2013-08-25 01:15:00,
2013-08-24 20:16:00,74.0,73.4,28.27,SW,226,0.0,0.0,98,0.00,,,0.00,0,Wunderground v.1.15,2013-08-25 01:16:00,
2013-08-24 20:17:00,74.0,73.4,28.27,SW,226,0.0,0.0,98,0.00,,,0.00,0,Wunderground v.1.15,2013-08-25 01:17:00,
2013-08-24 20:18:00,73.9,73.3,28.27,SW,226,0.0,0.0,98,0.00,,,0.00,0,Wunderground v.1.15,2013-08-25 01:18:00,
2013-08-24 20:19:00,73.9,73.3,28.27,SW,227,0.0,0.0,98,0.00,,,0.00,0,Wunderground v.1.15,2013-08-25 01:19:00,
2013-08-24 20:20:00,73.9,73.3,28.27,SW,227,0.0,0.0,98,0.00,,,0.00,0,Wunderground v.1.15,2013-08-25 01:20:00,
2013-08-24 20:21:00,73.9,73.3,28.27,SW,227,0.0,0.0,98,0.00,,,0.00,0,Wunderground v.1.15,2013-08-25 01:21:00,
2013-08-24 20:22:00,73.9,73.3,28.27,SW,227,0.0,0.0,98,0.00,,,0.00,0,Wunderground v.1.15,2013-08-25 01:22:00,
2013-08-24 20:23:00,73.9,73.3,28.27,SW,225,0.0,0.0,98,0.00,,,0.00,0,Wunderground v.1.15,2013-08-25 01:23:00,
2013-08-24 20:24:00,73.9,73.3,28.27,SW,225,0.0,0.0,98,0.00,,,0.00,0,Wunderground v.1.15,2013-08-25 01:24:00,
2013-08-24 20:25:00,73.8,73.2,28.27,SW,225,0.0,0.0,98,0.00,,,0.00,0,Wunderground v.1.15,2013-08-25 01:25:00,
2013-08-24 20:26:00,73.8,73.2,28.27,SW,225,0.0,0.0,98,0.00,,,0.00,0,Wunderground v.1.15,2013-08-25 01:26:00,
2013-08-24 20:28:00,73.8,73.2,28.27,SW,225,0.0,0.0,98,0.00,,,0.00,0,Wunderground v.1.15,2013-08-25 01:28:00,
2013-08-24 20:29:00,73.8,73.2,28.27,SW,225,0.0,0.0,98,0.00,,,0.00,0,Wunderground v.1.15,2013-08-25 01:29:00,
2013-08-24 20:30:00,73.7,73.1,28.27,N/A,-737280,0.0,-999.0,98,0.00,,,0.03,,Wunderground v.1.15,2013-08-25 01:30:00,
2013-08-24 20:31:00,73.7,73.1,28.27,SW,225,0.0,0.0,98,0.00,,,0.00,0,Wunderground v.1.15,2013-08-25 01:31:00,
2013-08-24 20:32:00,73.7,73.1,28.28,SW,225,0.0,0.0,98,0.00,,,0.00,0,Wunderground v.1.15,2013-08-25 01:32:00,
2013-08-24 20:33:00,73.7,73.1,28.28,SW,225,0.0,0.0,98,0.00,,,0.00,0,Wunderground v.1.15,2013-08-25 01:33:00,
2013-08-24 20:35:00,73.7,73.1,28.28,SW,225,0.0,0.0,98,0.00,,,0.00,0,Wunderground v.1.15,2013-08-25 01:35:00,
2013-08-24 20:36:00,73.6,73.0,28.28,SW,225,0.0,0.0,98,0.00,,,0.00,0,Wunderground v.1.15,2013-08-25 01:36:00,
2013-08-24 20:37:00,73.6,73.0,28.28,SW,225,0.0,0.0,98,0.00,,,0.00,0,Wunderground v.1.15,2013-08-25 01:37:00,
2013-08-24 20:38:00,73.6,73.0,28.28,SW,225,0.0,0.0,98,0.00,,,0.00,0,Wunderground v.1.15,2013-08-25 01:38:00,
2013-08-24 20:39:00,73.6,73.0,28.28,SW,226,0.0,0.0,98,0.00,,,0.00,0,Wunderground v.1.15,2013-08-25 01:39:00,
2013-08-24 20:40:00,73.6,73.0,28.28,SW,226,0.0,0.0,98,0.00,,,0.00,0,Wunderground v.1.15,2013-08-25 01:40:00,
2013-08-24 20:41:00,73.6,73.0,28.28,SW,226,0.0,0.0,98,0.00,,,0.00,0,Wunderground v.1.15,2013-08-25 01:41:00,
2013-08-24 20:43:00,73.5,72.9,28.28,SW,226,0.0,0.0,98,0.00,,,0.00,0,Wunderground v.1.15,2013-08-25 01:43:00,
2013-08-24 20:44:00,73.5,72.9,28.28,SW,230,0.0,0.0,98,0.00,,,0.00,0,Wunderground v.1.15,2013-08-25 01:44:00,
2013-08-24 20:45:00,73.5,72.9,28.28,SW,228,0.0,4.0,98,0.00,,,0.00,0,Wunderground v.1.15,2013-08-25 01:45:00,
2013-08-24 20:46:00,73.4,72.8,28.28,SW,228,0.0,4.0,98,0.00,,,0.00,0,Wunderground v.1.15,2013-08-25 01:46:00,
2013-08-24 20:48:00,73.4,73.1,28.28,SSW,207,0.0,4.0,99,0.00,,,0.00,0,Wunderground v.1.15,2013-08-25 01:48:00,
2013-08-24 20:49:00,73.3,72.7,28.28,SSW,207,0.0,4.0,98,0.00,,,0.00,0,Wunderground v.1.15,2013-08-25 01:49:00,
2013-08-24 20:50:00,73.3,73.0,28.28,SSW,205,0.0,4.0,99,0.00,,,0.00,0,Wunderground v.1.15,2013-08-25 01:50:00,
2013-08-24 20:51:00,73.2,72.6,28.28,SSW,205,0.0,0.0,98,0.00,,,0.00,0,Wunderground v.1.15,2013-08-25 01:51:00,
2013-08-24 20:53:00,73.2,72.9,28.29,SSW,205,0.0,0.0,99,0.00,,,0.00,0,Wunderground v.1.15,2013-08-25 01:53:00,
2013-08-24 20:54:00,73.1,72.8,28.29,SSW,205,0.0,0.0,99,0.00,,,0.00,0,Wunderground v.1.15,2013-08-25 01:54:00,
2013-08-24 20:55:00,73.1,72.8,28.28,N/A,-737280,0.0,-999.0,99,0.00,,,0.03,,Wunderground v.1.15,2013-08-25 01:55:00,
2013-08-24 20:56:00,73.1,72.8,28.29,SSW,207,0.0,0.0,99,0.00,,,0.00,0,Wunderground v.1.15,2013-08-25 01:56:00,
2013-08-24 20:58:00,73.0,72.7,28.29,SSW,208,0.0,2.0,99,0.00,,,0.00,0,Wunderground v.1.15,2013-08-25 01:58:00,
2013-08-24 20:59:00,73.0,72.7,28.28,SSW,208,0.0,2.0,99,0.00,,,0.00,0,Wunderground v.1.15,2013-08-25 01:59:00,
2013-08-24 21:00:00,72.9,72.6,28.29,SSW,208,0.0,2.0,99,0.00,,,0.00,0,Wunderground v.1.15,2013-08-25 02:00:00,
2013-08-24 21:01:00,72.9,72.6,28.29,SSW,208,0.0,0.0,99,0.00,,,0.00,0,Wunderground v.1.15,2013-08-25 02:01:00,
2013-08-24 21:03:00,72.8,72.5,28.28,SSW,209,0.0,1.0,99,0.00,,,0.00,0,Wunderground v.1.15,2013-08-25 02:03:00,
2013-08-24 21:04:00,72.8,72.8,28.28,SSW,209,0.0,1.0,100,0.00,,,0.00,0,Wunderground v.1.15,2013-08-25 02:04:00,
2013-08-24 21:05:00,72.7,72.7,28.28,SSW,209,0.0,1.0,100,0.00,,,0.00,0,Wunderground v.1.15,2013-08-25 02:05:00,
2013-08-24 21:06:00,72.7,72.7,28.29,SSW,209,0.0,1.0,100,0.00,,,0.00,0,Wunderground v.1.15,2013-08-25 02:06:00,
2013-08-24 21:07:00,72.7,72.7,28.29,SSW,209,0.0,1.0,100,0.00,,,0.00,0,Wunderground v.1.15,2013-08-25 02:07:00,
2013-08-24 21:08:00,72.6,72.6,28.29,SW,214,0.0,1.0,100,0.00,,,0.00,0,Wunderground v.1.15,2013-08-25 02:08:00,
2013-08-24 21:09:00,72.6,72.6,28.29,SSW,213,0.0,1.0,100,0.00,,,0.00,0,Wunderground v.1.15,2013-08-25 02:09:00,
2013-08-24 21:10:00,72.6,72.6,28.29,SSW,213,0.0,1.0,100,0.00,,,0.00,0,Wunderground v.1.15,2013-08-25 02:10:00,
2013-08-24 21:11:00,72.6,72.6,28.29,SSW,213,0.0,0.0,100,0.00,,,0.00,0,Wunderground v.1.15,2013-08-25 02:11:00,
2013-08-24 21:12:00,72.6,72.6,28.29,SSW,213,0.0,0.0,100,0.00,,,0.00,0,Wunderground v.1.15,2013-08-25 02:12:00,
2013-08-24 21:14:00,72.5,72.5,28.29,SSW,213,0.0,0.0,100,0.00,,,0.00,0,Wunderground v.1.15,2013-08-25 02:14:00,
2013-08-24 21:15:00,72.5,72.5,28.29,SSW,213,0.0,0.0,100,0.00,,,0.00,0,Wunderground v.1.15,2013-08-25 02:15:00,
2013-08-24 21:16:00,72.5,72.5,28.29,SW,231,3.0,3.0,100,0.00,,,0.00,0,Wunderground v.1.15,2013-08-25 02:16:00,
2013-08-24 21:17:00,72.5,72.5,28.29,SSW,194,2.0,3.0,100,0.00,,,0.00,0,Wunderground v.1.15,2013-08-25 02:17:00,
2013-08-24 21:19:00,72.5,72.5,28.29,South,176,0.0,5.0,100,0.00,,,0.00,0,Wunderground v.1.15,2013-08-25 02:19:00,
2013-08-24 21:20:00,72.5,72.5,28.29,SW,225,1.0,-999.0,100,0.00,,,0.03,,Wunderground v.1.15,2013-08-25 02:20:00,
2013-08-24 21:21:00,72.5,72.5,28.29,South,190,0.0,5.0,100,0.00,,,0.00,0,Wunderground v.1.15,2013-08-25 02:21:00,
2013-08-24 21:22:00,72.5,72.5,28.29,SW,222,0.0,5.0,100,0.00,,,0.00,0,Wunderground v.1.15,2013-08-25 02:22:00,
2013-08-24 21:24:00,72.5,72.5,28.30,SSW,213,0.0,5.0,100,0.00,,,0.00,0,Wunderground v.1.15,2013-08-25 02:24:00,
2013-08-24 21:25:00,72.5,72.5,28.30,N/A,-737280,0.0,-999.0,100,0.00,,,0.03,,Wunderground v.1.15,2013-08-25 02:25:00,
2013-08-24 21:26:00,72.5,72.5,28.30,SSW,212,0.0,5.0,100,0.00,,,0.00,0,Wunderground v.1.15,2013-08-25 02:26:00,
2013-08-24 21:27:00,72.5,72.5,28.30,SSW,213,0.0,5.0,100,0.00,,,0.00,0,Wunderground v.1.15,2013-08-25 02:27:00,
2013-08-24 21:29:00,72.5,72.5,28.30,SSW,213,0.0,5.0,100,0.00,,,0.00,0,Wunderground v.1.15,2013-08-25 02:29:00,
2013-08-24 21:30:00,72.5,72.5,28.30,N/A,-737280,0.0,-999.0,100,0.00,,,0.03,,Wunderground v.1.15,2013-08-25 02:30:00,
2013-08-24 21:31:00,72.5,72.5,28.31,SSW,213,0.0,5.0,100,0.00,,,0.00,0,Wunderground v.1.15,2013-08-25 02:31:00,
2013-08-24 21:32:00,72.5,72.5,28.31,SSW,209,0.0,1.0,100,0.00,,,0.00,0,Wunderground v.1.15,2013-08-25 02:32:00,
2013-08-24 21:35:00,72.5,72.5,28.31,SSW,209,0.0,1.0,100,0.00,,,0.00,0,Wunderground v.1.15,2013-08-25 02:35:00,
2013-08-24 21:36:00,72.5,72.5,28.31,SSW,209,0.0,1.0,100,0.00,,,0.00,0,Wunderground v.1.15,2013-08-25 02:36:00,
2013-08-24 21:37:00,72.5,72.5,28.31,SSW,209,0.0,1.0,100,0.00,,,0.00,0,Wunderground v.1.15,2013-08-25 02:37:00,
2013-08-24 21:40:00,72.4,72.4,28.32,SSW,209,0.0,1.0,100,0.00,,,0.00,0,Wunderground v.1.15,2013-08-25 02:40:00,
2013-08-24 21:41:00,72.4,72.4,28.32,SSW,209,0.0,0.0,100,0.00,,,0.00,0,Wunderground v.1.15,2013-08-25 02:41:00,
2013-08-24 21:42:00,72.4,72.4,28.32,SSW,209,0.0,0.0,100,0.00,,,0.00,0,Wunderground v.1.15,2013-08-25 02:42:00,
2013-08-24 21:45:00,72.3,72.3,28.32,SSW,209,0.0,0.0,100,0.00,,,0.00,0,Wunderground v.1.15,2013-08-25 02:45:00,
2013-08-24 21:46:00,72.2,72.2,28.32,SSW,209,0.0,0.0,100,0.00,,,0.00,0,Wunderground v.1.15,2013-08-25 02:46:00,
2013-08-24 21:47:00,72.2,72.2,28.32,SSW,209,0.0,0.0,100,0.00,,,0.00,0,Wunderground v.1.15,2013-08-25 02:47:00,
2013-08-24 21:48:00,72.2,72.2,28.32,SSW,209,0.0,0.0,100,0.00,,,0.00,0,Wunderground v.1.15,2013-08-25 02:48:00,
2013-08-24 21:50:00,72.1,72.1,28.32,SSW,209,0.0,0.0,100,0.00,,,0.00,0,Wunderground v.1.15,2013-08-25 02:50:00,
2013-08-24 21:52:00,72.0,72.0,28.32,SSW,209,0.0,0.0,100,0.00,,,0.00,0,Wunderground v.1.15,2013-08-25 02:52:00,
2013-08-24 21:53:00,72.0,72.0,28.32,SSW,209,0.0,0.0,100,0.00,,,0.00,0,Wunderground v.1.15,2013-08-25 02:53:00,
2013-08-24 21:55:00,71.8,71.8,28.32,N/A,-737280,0.0,-999.0,100,0.00,,,0.03,,Wunderground v.1.15,2013-08-25 02:55:00,
2013-08-24 21:56:00,71.8,71.8,28.32,SSW,209,0.0,0.0,100,0.00,,,0.00,0,Wunderground v.1.15,2013-08-25 02:56:00,
2013-08-24 21:57:00,71.8,71.8,28.32,SSW,209,0.0,0.0,100,0.00,,,0.00,0,Wunderground v.1.15,2013-08-25 02:57:00,
2013-08-24 21:58:00,71.8,71.8,28.32,SSW,209,0.0,0.0,100,0.00,,,0.00,0,Wunderground v.1.15,2013-08-25 02:58:00,
2013-08-24 21:59:00,71.8,71.8,28.32,SSW,209,0.0,0.0,100,0.00,,,0.00,0,Wunderground v.1.15,2013-08-25 02:59:00,
2013-08-24 22:00:00,71.7,71.7,28.32,N/A,-737280,0.0,-999.0,100,0.00,,,0.03,,Wunderground v.1.15,2013-08-25 03:00:00,
2013-08-24 22:01:00,71.7,71.7,28.32,SSW,209,0.0,0.0,100,0.00,,,0.00,0,Wunderground v.1.15,2013-08-25 03:01:00,
2013-08-24 22:03:00,71.7,71.7,28.32,SSW,209,0.0,0.0,100,0.00,,,0.00,0,Wunderground v.1.15,2013-08-25 03:03:00,
2013-08-24 22:04:00,71.6,71.6,28.32,SSW,209,0.0,0.0,100,0.00,,,0.00,0,Wunderground v.1.15,2013-08-25 03:04:00,
2013-08-24 22:05:00,71.6,71.6,28.32,N/A,-737280,0.0,-999.0,100,0.00,,,0.03,,Wunderground v.1.15,2013-08-25 03:05:00,
2013-08-24 22:07:00,71.6,71.6,28.32,SSW,209,0.0,0.0,100,0.00,,,0.00,0,Wunderground v.1.15,2013-08-25 03:07:00,
2013-08-24 22:08:00,71.5,71.5,28.32,SSW,209,0.0,0.0,100,0.00,,,0.00,0,Wunderground v.1.15,2013-08-25 03:08:00,
2013-08-24 22:09:00,71.5,71.5,28.32,SSW,209,0.0,0.0,100,0.00,,,0.00,0,Wunderground v.1.15,2013-08-25 03:09:00,
2013-08-24 22:10:00,71.5,71.5,28.32,N/A,-737280,0.0,-999.0,100,0.00,,,0.03,,Wunderground v.1.15,2013-08-25 03:10:00,
2013-08-24 22:12:00,71.4,71.4,28.32,SSW,209,0.0,0.0,100,0.00,,,0.00,0,Wunderground v.1.15,2013-08-25 03:12:00,
2013-08-24 22:13:00,71.4,71.4,28.32,SSW,209,0.0,0.0,100,0.00,,,0.00,0,Wunderground v.1.15,2013-08-25 03:13:00,
2013-08-24 22:14:00,71.4,71.4,28.32,SSW,209,0.0,0.0,100,0.00,,,0.00,0,Wunderground v.1.15,2013-08-25 03:14:00,
2013-08-24 22:15:00,71.3,71.3,28.32,N/A,-737280,0.0,-999.0,100,0.00,,,0.03,,Wunderground v.1.15,2013-08-25 03:15:00,
2013-08-24 22:17:00,71.3,71.3,28.32,SSW,209,0.0,0.0,100,0.00,,,0.00,0,Wunderground v.1.15,2013-08-25 03:17:00,
2013-08-24 22:18:00,71.3,71.3,28.32,SSW,209,0.0,0.0,100,0.00,,,0.00,0,Wunderground v.1.15,2013-08-25 03:18:00,
2013-08-24 22:20:00,71.2,71.2,28.32,SSW,209,0.0,0.0,100,0.00,,,0.00,0,Wunderground v.1.15,2013-08-25 03:20:00,
2013-08-24 22:22:00,71.2,71.2,28.32,SSW,209,0.0,0.0,100,0.00,,,0.00,0,Wunderground v.1.15,2013-08-25 03:22:00,
2013-08-24 22:23:00,71.2,71.2,28.32,SSW,209,0.0,0.0,100,0.00,,,0.00,0,Wunderground v.1.15,2013-08-25 03:23:00,
2013-08-24 22:24:00,71.1,71.1,28.32,SSW,209,0.0,0.0,100,0.00,,,0.00,0,Wunderground v.1.15,2013-08-25 03:24:00,
2013-08-24 22:25:00,71.1,71.1,28.32,SSW,209,0.0,0.0,100,0.00,,,0.00,0,Wunderground v.1.15,2013-08-25 03:25:00,
2013-08-24 22:27:00,71.1,71.1,28.32,SSW,209,0.0,0.0,100,0.00,,,0.00,0,Wunderground v.1.15,2013-08-25 03:27:00,
2013-08-24 22:28:00,71.1,71.1,28.32,SSW,209,0.0,0.0,100,0.00,,,0.00,0,Wunderground v.1.15,2013-08-25 03:28:00,
2013-08-24 22:29:00,71.1,71.1,28.32,SSW,209,0.0,0.0,100,0.00,,,0.00,0,Wunderground v.1.15,2013-08-25 03:29:00,
2013-08-24 22:30:00,71.1,71.1,28.32,SSW,209,0.0,1.0,100,0.00,,,0.00,0,Wunderground v.1.15,2013-08-25 03:30:00,
2013-08-24 22:31:00,71.1,71.1,28.32,SSW,209,0.0,1.0,100,0.00,,,0.00,0,Wunderground v.1.15,2013-08-25 03:31:00,
2013-08-24 22:32:00,71.1,71.1,28.32,SSW,209,0.0,0.0,100,0.00,,,0.00,0,Wunderground v.1.15,2013-08-25 03:32:00,
2013-08-24 22:33:00,71.1,71.1,28.32,SSW,209,0.0,0.0,100,0.00,,,0.00,0,Wunderground v.1.15,2013-08-25 03:33:00,
2013-08-24 22:34:00,71.1,71.1,28.32,SSW,209,0.0,0.0,100,0.00,,,0.00,0,Wunderground v.1.15,2013-08-25 03:34:00,
2013-08-24 22:35:00,71.1,71.1,28.32,SSW,209,0.0,0.0,100,0.00,,,0.00,0,Wunderground v.1.15,2013-08-25 03:35:00,
2013-08-24 22:36:00,71.1,71.1,28.32,SSW,209,0.0,0.0,100,0.00,,,0.00,0,Wunderground v.1.15,2013-08-25 03:36:00,
2013-08-24 22:37:00,71.1,71.1,28.32,SSW,209,0.0,0.0,100,0.00,,,0.00,0,Wunderground v.1.15,2013-08-25 03:37:00,
2013-08-24 22:39:00,71.1,71.1,28.32,SSW,209,0.0,1.0,100,0.00,,,0.00,0,Wunderground v.1.15,2013-08-25 03:39:00,
2013-08-24 22:40:00,71.1,71.1,28.32,N/A,-737280,0.0,-999.0,100,0.00,,,0.03,,Wunderground v.1.15,2013-08-25 03:40:00,
2013-08-24 22:41:00,71.1,71.1,28.32,SSW,209,0.0,1.0,100,0.00,,,0.00,0,Wunderground v.1.15,2013-08-25 03:41:00,
2013-08-24 22:42:00,71.1,71.1,28.32,SSW,209,0.0,0.0,100,0.00,,,0.00,0,Wunderground v.1.15,2013-08-25 03:42:00,
2013-08-24 22:44:00,71.1,71.1,28.32,SSW,209,0.0,0.0,100,0.00,,,0.00,0,Wunderground v.1.15,2013-08-25 03:44:00,
2013-08-24 22:45:00,71.1,71.1,28.32,N/A,-737280,0.0,-999.0,100,0.00,,,0.03,,Wunderground v.1.15,2013-08-25 03:45:00,
2013-08-24 22:46:00,71.1,71.1,28.32,SSW,209,0.0,0.0,100,0.00,,,0.00,0,Wunderground v.1.15,2013-08-25 03:46:00,
2013-08-24 22:48:00,71.1,71.1,28.32,SSW,209,0.0,0.0,100,0.00,,,0.00,0,Wunderground v.1.15,2013-08-25 03:48:00,
2013-08-24 22:49:00,71.1,71.1,28.32,SSW,209,0.0,0.0,100,0.00,,,0.00,0,Wunderground v.1.15,2013-08-25 03:49:00,
2013-08-24 22:50:00,71.1,71.1,28.33,SSW,208,0.0,1.0,100,0.00,,,0.00,0,Wunderground v.1.15,2013-08-25 03:50:00,
2013-08-24 22:51:00,71.1,71.1,28.33,SSW,208,0.0,1.0,100,0.00,,,0.00,0,Wunderground v.1.15,2013-08-25 03:51:00,
2013-08-24 22:53:00,71.1,71.1,28.33,SSW,208,0.0,1.0,100,0.00,,,0.00,0,Wunderground v.1.15,2013-08-25 03:53:00,
2013-08-24 22:54:00,71.1,71.1,28.33,SSW,208,0.0,1.0,100,0.00,,,0.00,0,Wunderground v.1.15,2013-08-25 03:54:00,
2013-08-24 22:55:00,71.1,71.1,28.33,SSW,208,0.0,1.0,100,0.00,,,0.00,0,Wunderground v.1.15,2013-08-25 03:55:00,
2013-08-24 22:56:00,71.1,71.1,28.33,SSW,208,0.0,1.0,100,0.00,,,0.00,0,Wunderground v.1.15,2013-08-25 03:56:00,
2013-08-24 22:57:00,71.1,71.1,28.33,SSW,208,3.0,3.0,100,0.00,,,0.00,0,Wunderground v.1.15,2013-08-25 03:57:00,
2013-08-24 22:58:00,71.1,71.1,28.33,SW,219,6.0,6.0,100,0.00,,,0.00,0,Wunderground v.1.15,2013-08-25 03:58:00,
2013-08-24 22:59:00,71.2,71.2,28.33,SW,224,0.0,6.0,100,0.00,,,0.00,0,Wunderground v.1.15,2013-08-25 03:59:00,
2013-08-24 23:00:00,71.2,71.2,28.32,SW,224,0.0,4.0,100,0.00,,,0.00,0,Wunderground v.1.15,2013-08-25 04:00:00,
2013-08-24 23:01:00,71.2,71.2,28.32,SW,224,0.0,4.0,100,0.00,,,0.00,0,Wunderground v.1.15,2013-08-25 04:01:00,
2013-08-24 23:02:00,71.2,71.2,28.33,SSW,212,7.0,7.0,100,0.00,,,0.00,0,Wunderground v.1.15,2013-08-25 04:02:00,
2013-08-24 23:05:00,71.2,71.2,28.32,SW,225,1.0,-999.0,100,0.00,,,0.03,,Wunderground v.1.15,2013-08-25 04:05:00,
2013-08-24 23:06:00,71.2,71.2,28.33,SW,221,1.0,7.0,100,0.00,,,0.00,0,Wunderground v.1.15,2013-08-25 04:06:00,
2013-08-24 23:07:00,71.2,71.2,28.32,SW,223,0.0,7.0,100,0.00,,,0.00,0,Wunderground v.1.15,2013-08-25 04:07:00,
2013-08-24 23:10:00,71.2,71.2,28.32,N/A,-737280,0.0,-999.0,100,0.00,,,0.03,,Wunderground v.1.15,2013-08-25 04:10:00,
2013-08-24 23:11:00,71.2,71.2,28.33,SW,230,0.0,0.0,100,0.00,,,0.00,0,Wunderground v.1.15,2013-08-25 04:11:00,
2013-08-24 23:12:00,71.2,71.2,28.32,SW,230,0.0,0.0,100,0.00,,,0.00,0,Wunderground v.1.15,2013-08-25 04:12:00,
2013-08-24 23:13:00,71.2,71.2,28.33,SW,226,0.0,0.0,100,0.00,,,0.00,0,Wunderground v.1.15,2013-08-25 04:13:00,
2013-08-24 23:15:00,71.2,71.2,28.33,N/A,-737280,0.0,-999.0,100,0.00,,,0.03,,Wunderground v.1.15,2013-08-25 04:15:00,
2013-08-24 23:16:00,71.2,71.2,28.33,SW,228,0.0,1.0,100,0.00,,,0.00,0,Wunderground v.1.15,2013-08-25 04:16:00,
2013-08-24 23:17:00,71.2,71.2,28.33,SW,229,0.0,1.0,100,0.00,,,0.00,0,Wunderground v.1.15,2013-08-25 04:17:00,
2013-08-24 23:18:00,71.2,71.2,28.33,SW,232,3.0,4.0,100,0.00,,,0.00,0,Wunderground v.1.15,2013-08-25 04:18:00,
2013-08-24 23:20:00,71.2,71.2,28.33,SW,225,0.0,-999.0,100,0.00,,,0.03,,Wunderground v.1.15,2013-08-25 04:20:00,
2013-08-24 23:21:00,71.2,71.2,28.33,SW,229,0.0,1.0,100,0.00,,,0.00,0,Wunderground v.1.15,2013-08-25 04:21:00,
2013-08-24 23:22:00,71.2,71.2,28.33,SSW,211,0.0,3.0,100,0.00,,,0.00,0,Wunderground v.1.15,2013-08-25 04:22:00,
2013-08-24 23:23:00,71.2,71.2,28.33,SSW,212,0.0,3.0,100,0.00,,,0.00,0,Wunderground v.1.15,2013-08-25 04:23:00,
2013-08-24 23:24:00,71.2,71.2,28.33,SW,214,0.0,3.0,100,0.00,,,0.00,0,Wunderground v.1.15,2013-08-25 04:24:00,
2013-08-24 23:25:00,71.2,71.2,28.33,N/A,-737280,0.0,-999.0,100,0.00,,,0.03,,Wunderground v.1.15,2013-08-25 04:25:00,
2013-08-24 23:26:00,71.2,71.2,28.33,SW,226,0.0,3.0,100,0.00,,,0.00,0,Wunderground v.1.15,2013-08-25 04:26:00,
2013-08-24 23:27:00,71.2,71.2,28.33,SW,226,0.0,3.0,100,0.00,,,0.00,0,Wunderground v.1.15,2013-08-25 04:27:00,
2013-08-24 23:28:00,71.2,71.2,28.33,SW,226,0.0,3.0,100,0.00,,,0.00,0,Wunderground v.1.15,2013-08-25 04:28:00,
2013-08-24 23:29:00,71.2,71.2,28.33,SW,227,0.0,3.0,100,0.00,,,0.00,0,Wunderground v.1.15,2013-08-25 04:29:00,
2013-08-24 23:30:00,71.3,71.3,28.33,N/A,-737280,0.0,-999.0,100,0.00,,,0.03,,Wunderground v.1.15,2013-08-25 04:30:00,
2013-08-24 23:32:00,71.3,71.3,28.33,SW,224,0.0,0.0,100,0.00,,,0.00,0,Wunderground v.1.15,2013-08-25 04:32:00,
2013-08-24 23:33:00,71.3,71.3,28.33,SW,224,0.0,0.0,100,0.00,,,0.00,0,Wunderground v.1.15,2013-08-25 04:33:00,
2013-08-24 23:34:00,71.3,71.3,28.33,SW,233,4.0,6.0,100,0.00,,,0.00,0,Wunderground v.1.15,2013-08-25 04:34:00,
2013-08-24 23:35:00,71.3,71.3,28.33,N/A,-737280,0.0,-999.0,100,0.00,,,0.03,,Wunderground v.1.15,2013-08-25 04:35:00,
2013-08-24 23:37:00,71.3,71.3,28.33,SW,222,0.0,6.0,100,0.00,,,0.00,0,Wunderground v.1.15,2013-08-25 04:37:00,
2013-08-24 23:38:00,71.4,71.4,28.33,SW,225,0.0,6.0,100,0.00,,,0.00,0,Wunderground v.1.15,2013-08-25 04:38:00,
2013-08-24 23:39:00,71.4,71.4,28.33,SW,222,0.0,6.0,100,0.00,,,0.00,0,Wunderground v.1.15,2013-08-25 04:39:00,
2013-08-24 23:40:00,71.5,71.5,28.33,SW,225,1.0,-999.0,100,0.00,,,0.03,,Wunderground v.1.15,2013-08-25 04:40:00,
2013-08-24 23:42:00,71.5,71.5,28.33,SW,224,0.0,4.0,100,0.00,,,0.00,0,Wunderground v.1.15,2013-08-25 04:42:00,
2013-08-24 23:43:00,71.5,71.5,28.33,SW,224,0.0,4.0,100,0.00,,,0.00,0,Wunderground v.1.15,2013-08-25 04:43:00,
2013-08-24 23:44:00,71.6,71.6,28.33,SW,235,0.0,4.0,100,0.00,,,0.00,0,Wunderground v.1.15,2013-08-25 04:44:00,
2013-08-24 23:45:00,71.6,71.6,28.33,SW,225,1.0,-999.0,100,0.00,,,0.03,,Wunderground v.1.15,2013-08-25 04:45:00,
2013-08-24 23:47:00,71.7,71.7,28.33,WSW,239,0.0,4.0,100,0.00,,,0.00,0,Wunderground v.1.15,2013-08-25 04:47:00,
2013-08-24 23:48:00,71.7,71.7,28.33,WSW,237,0.0,4.0,100,0.00,,,0.00,0,Wunderground v.1.15,2013-08-25 04:48:00,
2013-08-24 23:49:00,71.7,71.7,28.33,SW,232,0.0,4.0,100,0.00,,,0.00,0,Wunderground v.1.15,2013-08-25 04:49:00,
2013-08-24 23:50:00,71.8,71.8,28.33,N/A,-737280,0.0,-999.0,100,0.00,,,0.03,,Wunderground v.1.15,2013-08-25 04:50:00,
2013-08-24 23:52:00,71.8,71.8,28.33,SW,226,0.0,1.0,100,0.00,,,0.00,0,Wunderground v.1.15,2013-08-25 04:52:00,
2013-08-24 23:53:00,71.8,71.8,28.33,SW,226,0.0,1.0,100,0.00,,,0.00,0,Wunderground v.1.15,2013-08-25 04:53:00,
2013-08-24 23:54:00,71.9,71.9,28.33,SW,227,0.0,1.0,100,0.00,,,0.00,0,Wunderground v.1.15,2013-08-25 04:54:00,
2013-08-24 23:55:00,71.9,71.9,28.33,N/A,-737280,0.0,-999.0,100,0.00,,,0.03,,Wunderground v.1.15,2013-08-25 04:55:00,
2013-08-24 23:58:00,72.0,72.0,28.33,SW,225,0.0,1.0,100,0.00,,,0.00,0,Wunderground v.1.15,2013-08-25 04:58:00,
2013-08-24 23:59:00,72.0,72.0,28.33,SW,224,0.0,1.0,100,0.00,,,0.00,0,Wunderground v.1.15,2013-08-25 04:59:00,